Time,TemperatureF,DewpointF,PressureIn,WindDirection,WindDirectionDegrees,WindSpeedMPH,WindSpeedGustMPH,Humidity,HourlyPrecipIn,Conditions,Clouds,dailyrainin,SoftwareType,DateUTC
2013-01-03 00:00:00,36.2,30.0,30.26,North,4,1.0,1.0,78,0.00,,,0.00,Wunderground v.1.15,2013-01-03 06:00:00,
2013-01-03 00:02:00,36.3,29.8,30.26,North,4,1.0,2.0,77,0.00,,,0.00,Wunderground v.1.15,2013-01-03 06:02:00,
2013-01-03 00:03:00,36.3,29.8,30.26,North,3,2.0,2.0,77,0.00,,,0.00,Wunderground v.1.15,2013-01-03 06:03:00,
2013-01-03 00:04:00,36.3,29.8,30.26,North,3,2.0,2.0,77,0.00,,,0.00,Wunderground v.1.15,2013-01-03 06:04:00,
2013-01-03 00:07:00,36.5,30.0,30.26,North,3,2.0,3.0,77,0.00,,,0.00,Wunderground v.1.15,2013-01-03 06:07:00,
2013-01-03 00:08:00,36.5,30.0,30.26,North,3,2.0,3.0,77,0.00,,,0.00,Wunderground v.1.15,2013-01-03 06:08:00,
2013-01-03 00:11:00,36.6,29.7,30.26,North,3,2.0,2.0,76,0.00,,,0.00,Wunderground v.1.15,2013-01-03 06:11:00,
2013-01-03 00:13:00,36.6,29.7,30.26,North,0,2.0,3.0,76,0.00,,,0.00,Wunderground v.1.15,2013-01-03 06:13:00,
2013-01-03 00:14:00,36.6,29.7,30.26,North,0,2.0,4.0,76,0.00,,,0.00,Wunderground v.1.15,2013-01-03 06:14:00,
2013-01-03 00:17:00,36.6,29.7,30.26,North,0,2.0,4.0,76,0.00,,,0.00,Wunderground v.1.15,2013-01-03 06:17:00,
2013-01-03 00:23:00,36.6,29.4,30.26,North,0,2.0,4.0,75,0.00,,,0.00,Wunderground v.1.15,2013-01-03 06:23:00,
2013-01-03 00:24:00,36.6,29.4,30.26,North,0,2.0,5.0,75,0.00,,,0.00,Wunderground v.1.15,2013-01-03 06:24:00,
2013-01-03 00:25:00,36.8,29.6,30.26,North,359,2.0,5.0,75,0.00,,,0.00,Wunderground v.1.15,2013-01-03 06:25:00,
2013-01-03 00:26:00,36.8,29.6,30.26,North,0,2.0,5.0,75,0.00,,,0.00,Wunderground v.1.15,2013-01-03 06:26:00,
2013-01-03 00:30:00,36.8,29.6,30.26,North,0,3.0,3.0,75,0.00,,,0.00,Wunderground v.1.15,2013-01-03 06:30:00,
2013-01-03 00:31:00,36.9,29.7,30.26,NNW,342,3.0,3.0,75,0.00,,,0.00,Wunderground v.1.15,2013-01-03 06:31:00,
2013-01-03 00:32:00,36.9,29.7,30.26,NNW,342,3.0,3.0,75,0.00,,,0.00,Wunderground v.1.15,2013-01-03 06:32:00,
2013-01-03 00:35:00,36.9,29.7,30.26,North,353,2.0,5.0,75,0.00,,,0.00,Wunderground v.1.15,2013-01-03 06:35:00,
2013-01-03 00:37:00,37.0,29.8,30.26,North,0,3.0,5.0,75,0.00,,,0.00,Wunderground v.1.15,2013-01-03 06:37:00,
2013-01-03 00:38:00,37.0,29.5,30.26,North,0,3.0,5.0,74,0.00,,,0.00,Wunderground v.1.15,2013-01-03 06:38:00,
2013-01-03 00:40:00,37.0,29.5,30.26,North,0,2.0,2.0,74,0.00,,,0.00,Wunderground v.1.15,2013-01-03 06:40:00,
2013-01-03 00:41:00,37.0,29.5,30.26,North,7,2.0,2.0,74,0.00,,,0.00,Wunderground v.1.15,2013-01-03 06:41:00,
2013-01-03 00:43:00,37.0,29.5,30.26,North,0,3.0,3.0,74,0.00,,,0.00,Wunderground v.1.15,2013-01-03 06:43:00,
2013-01-03 00:44:00,37.2,29.7,30.26,North,0,3.0,3.0,74,0.00,,,0.00,Wunderground v.1.15,2013-01-03 06:44:00,
2013-01-03 00:45:00,37.2,29.7,30.26,North,0,2.0,3.0,74,0.00,,,0.00,Wunderground v.1.15,2013-01-03 06:45:00,
2013-01-03 00:49:00,37.2,29.7,30.25,North,359,2.0,3.0,74,0.00,,,0.00,Wunderground v.1.15,2013-01-03 06:49:00,
2013-01-03 00:50:00,37.2,29.3,30.25,North,359,1.0,3.0,73,0.00,,,0.00,Wunderground v.1.15,2013-01-03 06:50:00,
2013-01-03 00:51:00,37.2,29.3,30.25,North,359,1.0,2.0,73,0.00,,,0.00,Wunderground v.1.15,2013-01-03 06:51:00,
2013-01-03 00:53:00,37.2,29.3,30.25,North,359,1.0,2.0,73,0.00,,,0.00,Wunderground v.1.15,2013-01-03 06:53:00,
2013-01-03 00:54:00,37.3,29.4,30.25,North,359,1.0,2.0,73,0.00,,,0.00,Wunderground v.1.15,2013-01-03 06:54:00,
2013-01-03 00:56:00,37.3,29.4,30.25,North,359,1.0,2.0,73,0.00,,,0.00,Wunderground v.1.15,2013-01-03 06:56:00,
2013-01-03 00:59:00,37.2,29.3,30.25,North,359,1.0,2.0,73,0.00,,,0.00,Wunderground v.1.15,2013-01-03 06:59:00,
2013-01-03 01:01:00,37.2,29.3,30.26,North,359,1.0,2.0,73,0.00,,,0.00,Wunderground v.1.15,2013-01-03 07:01:00,
2013-01-03 01:03:00,37.2,29.3,30.26,North,359,1.0,2.0,73,0.00,,,0.00,Wunderground v.1.15,2013-01-03 07:03:00,
2013-01-03 01:04:00,37.2,29.3,30.26,North,359,1.0,2.0,73,0.00,,,0.00,Wunderground v.1.15,2013-01-03 07:04:00,
2013-01-03 01:05:00,37.2,29.3,30.26,North,359,1.0,2.0,73,0.00,,,0.00,Wunderground v.1.15,2013-01-03 07:05:00,
2013-01-03 01:06:00,37.2,29.0,30.26,North,0,2.0,2.0,72,0.00,,,0.00,Wunderground v.1.15,2013-01-03 07:06:00,
2013-01-03 01:10:00,37.2,29.0,30.26,North,0,2.0,2.0,72,0.00,,,0.00,Wunderground v.1.15,2013-01-03 07:10:00,
2013-01-03 01:11:00,37.2,29.0,30.26,North,0,2.0,2.0,72,0.00,,,0.00,Wunderground v.1.15,2013-01-03 07:11:00,
2013-01-03 01:14:00,37.3,29.1,30.26,NNE,13,2.0,6.0,72,0.00,,,0.00,Wunderground v.1.15,2013-01-03 07:14:00,
2013-01-03 01:15:00,37.3,29.1,30.26,North,11,2.0,6.0,72,0.00,,,0.00,Wunderground v.1.15,2013-01-03 07:15:00,
2013-01-03 01:16:00,37.3,29.1,30.25,North,11,2.0,6.0,72,0.00,,,0.00,Wunderground v.1.15,2013-01-03 07:16:00,
2013-01-03 01:18:00,37.3,29.1,30.25,North,11,2.0,6.0,72,0.00,,,0.00,Wunderground v.1.15,2013-01-03 07:18:00,
2013-01-03 01:20:00,37.3,29.1,30.25,North,6,2.0,6.0,72,0.00,,,0.00,Wunderground v.1.15,2013-01-03 07:20:00,
2013-01-03 01:21:00,37.3,29.1,30.25,North,6,2.0,2.0,72,0.00,,,0.00,Wunderground v.1.15,2013-01-03 07:21:00,
2013-01-03 01:22:00,37.3,29.1,30.25,NNE,16,2.0,5.0,72,0.00,,,0.00,Wunderground v.1.15,2013-01-03 07:22:00,
2013-01-03 01:23:00,37.3,29.1,30.25,North,0,2.0,5.0,72,0.00,,,0.00,Wunderground v.1.15,2013-01-03 07:23:00,
2013-01-03 01:26:00,37.3,28.8,30.25,North,0,2.0,5.0,71,0.00,,,0.00,Wunderground v.1.15,2013-01-03 07:26:00,
2013-01-03 01:27:00,37.3,28.8,30.25,North,0,2.0,5.0,71,0.00,,,0.00,Wunderground v.1.15,2013-01-03 07:27:00,
2013-01-03 01:31:00,37.3,28.8,30.26,NNE,13,2.0,2.0,71,0.00,,,0.00,Wunderground v.1.15,2013-01-03 07:31:00,
2013-01-03 01:34:00,37.3,28.8,30.26,NNE,14,1.0,5.0,71,0.00,,,0.00,Wunderground v.1.15,2013-01-03 07:34:00,
2013-01-03 01:36:00,37.3,28.8,30.26,NNE,23,2.0,5.0,71,0.00,,,0.00,Wunderground v.1.15,2013-01-03 07:36:00,
2013-01-03 01:37:00,37.3,28.8,30.26,NNW,332,2.0,5.0,71,0.00,,,0.00,Wunderground v.1.15,2013-01-03 07:37:00,
2013-01-03 01:39:00,37.3,28.8,30.26,NNW,335,2.0,5.0,71,0.00,,,0.00,Wunderground v.1.15,2013-01-03 07:39:00,
2013-01-03 01:43:00,37.3,28.8,30.26,NNE,20,3.0,5.0,71,0.00,,,0.00,Wunderground v.1.15,2013-01-03 07:43:00,
2013-01-03 01:44:00,37.3,28.8,30.26,NNE,18,3.0,5.0,71,0.00,,,0.00,Wunderground v.1.15,2013-01-03 07:44:00,
2013-01-03 01:47:00,37.3,28.8,30.25,NE,34,3.0,5.0,71,0.00,,,0.00,Wunderground v.1.15,2013-01-03 07:47:00,
2013-01-03 01:48:00,37.3,28.8,30.25,NNE,25,3.0,5.0,71,0.00,,,0.00,Wunderground v.1.15,2013-01-03 07:48:00,
2013-01-03 01:49:00,37.3,28.8,30.25,NNE,21,3.0,7.0,71,0.00,,,0.00,Wunderground v.1.15,2013-01-03 07:49:00,
2013-01-03 01:52:00,37.2,28.7,30.25,NNE,17,3.0,4.0,71,0.00,,,0.00,Wunderground v.1.15,2013-01-03 07:52:00,
2013-01-03 01:53:00,37.2,28.7,30.25,NE,41,3.0,4.0,71,0.00,,,0.00,Wunderground v.1.15,2013-01-03 07:53:00,
2013-01-03 01:55:00,37.2,28.7,30.25,North,10,4.0,7.0,71,0.00,,,0.00,Wunderground v.1.15,2013-01-03 07:55:00,
2013-01-03 02:00:00,37.2,28.7,30.25,NE,47,4.0,7.0,71,0.00,,,0.00,Wunderground v.1.15,2013-01-03 08:00:00,
2013-01-03 02:01:00,37.2,28.7,30.25,NNE,31,4.0,7.0,71,0.00,,,0.00,Wunderground v.1.15,2013-01-03 08:01:00,
2013-01-03 02:03:00,37.2,29.0,30.25,NE,38,4.0,7.0,72,0.00,,,0.00,Wunderground v.1.15,2013-01-03 08:03:00,
2013-01-03 02:06:00,37.2,29.0,30.25,North,0,3.0,7.0,72,0.00,,,0.00,Wunderground v.1.15,2013-01-03 08:06:00,
2013-01-03 02:08:00,37.2,29.0,30.25,NNE,13,3.0,7.0,72,0.00,,,0.00,Wunderground v.1.15,2013-01-03 08:08:00,
2013-01-03 02:09:00,37.2,29.0,30.25,North,8,3.0,7.0,72,0.00,,,0.00,Wunderground v.1.15,2013-01-03 08:09:00,
2013-01-03 02:10:00,37.2,29.0,30.25,NE,47,4.0,4.0,72,0.00,,,0.00,Wunderground v.1.15,2013-01-03 08:10:00,
2013-01-03 02:14:00,37.2,29.0,30.25,NE,34,4.0,7.0,72,0.00,,,0.00,Wunderground v.1.15,2013-01-03 08:14:00,
2013-01-03 02:16:00,37.2,29.0,30.26,North,0,4.0,7.0,72,0.00,,,0.00,Wunderground v.1.15,2013-01-03 08:16:00,
2013-01-03 02:17:00,37.2,29.0,30.26,North,0,4.0,7.0,72,0.00,,,0.00,Wunderground v.1.15,2013-01-03 08:17:00,
2013-01-03 02:18:00,37.2,29.0,30.26,North,0,4.0,7.0,72,0.00,,,0.00,Wunderground v.1.15,2013-01-03 08:18:00,
2013-01-03 02:23:00,37.2,29.0,30.26,North,0,3.0,3.0,72,0.00,,,0.00,Wunderground v.1.15,2013-01-03 08:23:00,
2013-01-03 02:25:00,37.2,29.0,30.26,NE,41,3.0,6.0,72,0.00,,,0.00,Wunderground v.1.15,2013-01-03 08:25:00,
2013-01-03 02:27:00,37.2,29.0,30.26,NNE,30,4.0,6.0,72,0.00,,,0.00,Wunderground v.1.15,2013-01-03 08:27:00,
2013-01-03 02:28:00,37.2,29.0,30.26,NNE,24,4.0,6.0,72,0.00,,,0.00,Wunderground v.1.15,2013-01-03 08:28:00,
2013-01-03 02:32:00,37.2,29.0,30.26,NE,45,3.0,4.0,72,0.00,,,0.00,Wunderground v.1.15,2013-01-03 08:32:00,
2013-01-03 02:36:00,37.2,29.0,30.26,NE,44,3.0,4.0,72,0.00,,,0.00,Wunderground v.1.15,2013-01-03 08:36:00,
2013-01-03 02:37:00,37.2,29.0,30.26,NE,44,3.0,4.0,72,0.00,,,0.00,Wunderground v.1.15,2013-01-03 08:37:00,
2013-01-03 02:40:00,37.0,28.8,30.26,NNE,27,2.0,2.0,72,0.00,,,0.00,Wunderground v.1.15,2013-01-03 08:40:00,
2013-01-03 02:42:00,37.0,28.8,30.26,NNE,24,2.0,2.0,72,0.00,,,0.00,Wunderground v.1.15,2013-01-03 08:42:00,
2013-01-03 02:48:00,37.0,28.8,30.26,North,7,2.0,4.0,72,0.00,,,0.00,Wunderground v.1.15,2013-01-03 08:48:00,
2013-01-03 02:49:00,37.0,28.8,30.26,North,7,2.0,4.0,72,0.00,,,0.00,Wunderground v.1.15,2013-01-03 08:49:00,
2013-01-03 02:50:00,37.0,28.8,30.26,North,7,2.0,2.0,72,0.00,,,0.00,Wunderground v.1.15,2013-01-03 08:50:00,
2013-01-03 02:53:00,37.0,28.8,30.26,NNE,28,3.0,6.0,72,0.00,,,0.00,Wunderground v.1.15,2013-01-03 08:53:00,
2013-01-03 02:54:00,37.0,28.8,30.26,NNE,30,3.0,6.0,72,0.00,,,0.00,Wunderground v.1.15,2013-01-03 08:54:00,
2013-01-03 02:55:00,37.0,28.8,30.26,NNE,31,2.0,7.0,72,0.00,,,0.00,Wunderground v.1.15,2013-01-03 08:55:00,
2013-01-03 03:00:00,37.0,28.8,30.25,NE,38,4.0,4.0,72,0.00,,,0.00,Wunderground v.1.15,2013-01-03 09:00:00,
2013-01-03 03:01:00,37.0,28.8,30.25,North,359,4.0,4.0,72,0.00,,,0.00,Wunderground v.1.15,2013-01-03 09:01:00,
2013-01-03 03:07:00,36.9,28.7,30.25,NNE,18,4.0,6.0,72,0.00,,,0.00,Wunderground v.1.15,2013-01-03 09:07:00,
2013-01-03 03:10:00,36.9,28.7,30.25,NNE,23,3.0,3.0,72,0.00,,,0.00,Wunderground v.1.15,2013-01-03 09:10:00,
2013-01-03 03:13:00,37.0,28.8,30.25,North,0,3.0,5.0,72,0.00,,,0.00,Wunderground v.1.15,2013-01-03 09:13:00,
2013-01-03 03:16:00,37.0,28.8,30.26,NNE,28,3.0,5.0,72,0.00,,,0.00,Wunderground v.1.15,2013-01-03 09:16:00,
2013-01-03 03:18:00,37.0,28.8,30.26,NNE,28,3.0,5.0,72,0.00,,,0.00,Wunderground v.1.15,2013-01-03 09:18:00,
2013-01-03 03:20:00,37.0,28.8,30.26,NNE,20,3.0,3.0,72,0.00,,,0.00,Wunderground v.1.15,2013-01-03 09:20:00,
2013-01-03 03:22:00,37.0,28.8,30.26,NE,37,3.0,4.0,72,0.00,,,0.00,Wunderground v.1.15,2013-01-03 09:22:00,
2013-01-03 03:23:00,37.0,28.8,30.26,NE,37,2.0,4.0,72,0.00,,,0.00,Wunderground v.1.15,2013-01-03 09:23:00,
2013-01-03 03:24:00,37.0,28.8,30.26,NE,37,2.0,4.0,72,0.00,,,0.00,Wunderground v.1.15,2013-01-03 09:24:00,
2013-01-03 03:26:00,37.0,28.8,30.26,NE,37,2.0,4.0,72,0.00,,,0.00,Wunderground v.1.15,2013-01-03 09:26:00,
2013-01-03 03:28:00,37.0,28.8,30.26,NE,37,2.0,4.0,72,0.00,,,0.00,Wunderground v.1.15,2013-01-03 09:28:00,
2013-01-03 03:30:00,37.0,28.8,30.26,NE,37,2.0,2.0,72,0.00,,,0.00,Wunderground v.1.15,2013-01-03 09:30:00,
2013-01-03 03:32:00,37.0,28.8,30.27,NE,37,1.0,2.0,72,0.00,,,0.00,Wunderground v.1.15,2013-01-03 09:32:00,
2013-01-03 03:33:00,37.0,28.8,30.27,NE,37,1.0,2.0,72,0.00,,,0.00,Wunderground v.1.15,2013-01-03 09:33:00,
2013-01-03 03:34:00,37.0,28.8,30.27,NE,37,1.0,2.0,72,0.00,,,0.00,Wunderground v.1.15,2013-01-03 09:34:00,
2013-01-03 03:35:00,37.0,28.8,30.27,NE,37,1.0,2.0,72,0.00,,,0.00,Wunderground v.1.15,2013-01-03 09:35:00,
2013-01-03 03:39:00,37.2,29.0,30.27,NE,37,1.0,2.0,72,0.00,,,0.00,Wunderground v.1.15,2013-01-03 09:39:00,
2013-01-03 03:42:00,37.2,29.0,30.27,NE,37,0.0,1.0,72,0.00,,,0.00,Wunderground v.1.15,2013-01-03 09:42:00,
2013-01-03 03:46:00,37.2,29.0,30.29,NE,37,0.0,1.0,72,0.00,,,0.00,Wunderground v.1.15,2013-01-03 09:46:00,
2013-01-03 03:47:00,37.2,29.0,30.29,NE,37,0.0,1.0,72,0.00,,,0.00,Wunderground v.1.15,2013-01-03 09:47:00,
2013-01-03 03:48:00,37.2,29.0,30.29,NE,37,0.0,1.0,72,0.00,,,0.00,Wunderground v.1.15,2013-01-03 09:48:00,
2013-01-03 03:52:00,37.2,29.0,30.29,NE,37,1.0,2.0,72,0.00,,,0.00,Wunderground v.1.15,2013-01-03 09:52:00,
2013-01-03 03:54:00,37.2,29.0,30.29,NE,37,1.0,2.0,72,0.00,,,0.00,Wunderground v.1.15,2013-01-03 09:54:00,
2013-01-03 03:55:00,37.2,29.0,30.29,NE,37,1.0,3.0,72,0.00,,,0.00,Wunderground v.1.15,2013-01-03 09:55:00,
2013-01-03 03:57:00,37.2,29.0,30.29,NNE,32,1.0,3.0,72,0.00,,,0.00,Wunderground v.1.15,2013-01-03 09:57:00,
2013-01-03 03:58:00,37.2,29.0,30.29,NNE,32,1.0,3.0,72,0.00,,,0.00,Wunderground v.1.15,2013-01-03 09:58:00,
2013-01-03 04:00:00,37.2,29.0,30.29,NNE,32,2.0,2.0,72,0.00,,,0.00,Wunderground v.1.15,2013-01-03 10:00:00,
2013-01-03 04:01:00,37.2,29.0,30.29,NNE,32,2.0,2.0,72,0.00,,,0.00,Wunderground v.1.15,2013-01-03 10:01:00,
2013-01-03 04:05:00,37.2,29.0,30.29,NNE,31,2.0,3.0,72,0.00,,,0.00,Wunderground v.1.15,2013-01-03 10:05:00,
2013-01-03 04:06:00,37.2,29.0,30.29,NNE,31,2.0,3.0,72,0.00,,,0.00,Wunderground v.1.15,2013-01-03 10:06:00,
2013-01-03 04:08:00,37.2,29.0,30.29,NNE,31,1.0,3.0,72,0.00,,,0.00,Wunderground v.1.15,2013-01-03 10:08:00,
2013-01-03 04:10:00,37.2,29.0,30.29,NNE,31,1.0,3.0,72,0.00,,,0.00,Wunderground v.1.15,2013-01-03 10:10:00,
2013-01-03 04:12:00,37.2,29.0,30.29,NNE,30,1.0,3.0,72,0.00,,,0.00,Wunderground v.1.15,2013-01-03 10:12:00,
2013-01-03 04:13:00,37.2,29.0,30.29,NNE,31,2.0,3.0,72,0.00,,,0.00,Wunderground v.1.15,2013-01-03 10:13:00,
2013-01-03 04:16:00,37.2,29.0,30.29,NNE,30,1.0,3.0,72,0.00,,,0.00,Wunderground v.1.15,2013-01-03 10:16:00,
2013-01-03 04:18:00,37.2,29.0,30.29,North,359,2.0,5.0,72,0.00,,,0.00,Wunderground v.1.15,2013-01-03 10:18:00,
2013-01-03 04:20:00,37.2,29.0,30.29,North,359,2.0,3.0,72,0.00,,,0.00,Wunderground v.1.15,2013-01-03 10:20:00,
2013-01-03 04:22:00,37.2,29.0,30.29,North,0,2.0,3.0,72,0.00,,,0.00,Wunderground v.1.15,2013-01-03 10:22:00,
2013-01-03 04:23:00,37.2,29.0,30.29,North,0,2.0,3.0,72,0.00,,,0.00,Wunderground v.1.15,2013-01-03 10:23:00,
2013-01-03 04:26:00,37.2,29.0,30.29,North,0,2.0,3.0,72,0.00,,,0.00,Wunderground v.1.15,2013-01-03 10:26:00,
2013-01-03 04:27:00,37.3,29.1,30.29,North,359,2.0,3.0,72,0.00,,,0.00,Wunderground v.1.15,2013-01-03 10:27:00,
2013-01-03 04:28:00,37.3,29.1,30.29,NNW,342,2.0,3.0,72,0.00,,,0.00,Wunderground v.1.15,2013-01-03 10:28:00,
2013-01-03 04:32:00,37.2,29.0,30.30,NNW,343,3.0,5.0,72,0.00,,,0.00,Wunderground v.1.15,2013-01-03 10:32:00,
2013-01-03 04:33:00,37.2,29.0,30.30,NNW,329,3.0,6.0,72,0.00,,,0.00,Wunderground v.1.15,2013-01-03 10:33:00,
2013-01-03 04:38:00,37.2,29.0,30.30,North,359,4.0,6.0,72,0.00,,,0.00,Wunderground v.1.15,2013-01-03 10:38:00,
2013-01-03 04:40:00,37.2,29.0,30.30,NNW,340,4.0,6.0,72,0.00,,,0.00,Wunderground v.1.15,2013-01-03 10:40:00,
2013-01-03 04:43:00,37.2,29.0,30.30,North,359,3.0,5.0,72,0.00,,,0.00,Wunderground v.1.15,2013-01-03 10:43:00,
2013-01-03 04:44:00,37.2,29.0,30.30,North,0,3.0,5.0,72,0.00,,,0.00,Wunderground v.1.15,2013-01-03 10:44:00,
2013-01-03 04:45:00,37.2,29.0,30.30,North,0,3.0,6.0,72,0.00,,,0.00,Wunderground v.1.15,2013-01-03 10:45:00,
2013-01-03 04:48:00,37.0,28.8,30.30,North,359,3.0,7.0,72,0.00,,,0.00,Wunderground v.1.15,2013-01-03 10:48:00,
2013-01-03 04:50:00,37.0,28.8,30.30,North,359,3.0,7.0,72,0.00,,,0.00,Wunderground v.1.15,2013-01-03 10:50:00,
2013-01-03 04:53:00,37.2,29.0,30.30,North,352,3.0,3.0,72,0.00,,,0.00,Wunderground v.1.15,2013-01-03 10:53:00,
2013-01-03 04:56:00,37.2,28.7,30.30,North,0,3.0,6.0,71,0.00,,,0.00,Wunderground v.1.15,2013-01-03 10:56:00,
2013-01-03 04:57:00,37.2,28.7,30.30,North,353,3.0,6.0,71,0.00,,,0.00,Wunderground v.1.15,2013-01-03 10:57:00,
2013-01-03 04:58:00,37.2,28.7,30.30,North,359,3.0,6.0,71,0.00,,,0.00,Wunderground v.1.15,2013-01-03 10:58:00,
2013-01-03 05:00:00,37.2,28.7,30.29,North,8,4.0,5.0,71,0.00,,,0.00,Wunderground v.1.15,2013-01-03 11:00:00,
2013-01-03 05:01:00,37.2,28.7,30.29,NNE,14,4.0,5.0,71,0.00,,,0.00,Wunderground v.1.15,2013-01-03 11:01:00,
2013-01-03 05:03:00,37.2,28.7,30.29,NNE,20,4.0,5.0,71,0.00,,,0.00,Wunderground v.1.15,2013-01-03 11:03:00,
2013-01-03 05:04:00,37.2,28.7,30.29,NNE,24,4.0,6.0,71,0.00,,,0.00,Wunderground v.1.15,2013-01-03 11:04:00,
2013-01-03 05:08:00,37.2,28.3,30.29,NNE,30,4.0,7.0,70,0.00,,,0.00,Wunderground v.1.15,2013-01-03 11:08:00,
2013-01-03 05:10:00,37.2,28.3,30.29,NNE,13,4.0,6.0,70,0.00,,,0.00,Wunderground v.1.15,2013-01-03 11:10:00,
2013-01-03 05:13:00,37.3,28.8,30.29,North,356,4.0,6.0,71,0.00,,,0.00,Wunderground v.1.15,2013-01-03 11:13:00,
2013-01-03 05:15:00,37.3,28.4,30.29,North,3,4.0,6.0,70,0.00,,,0.00,Wunderground v.1.15,2013-01-03 11:15:00,
2013-01-03 05:17:00,37.3,28.4,30.29,North,354,4.0,6.0,70,0.00,,,0.00,Wunderground v.1.15,2013-01-03 11:17:00,
2013-01-03 05:18:00,37.3,28.4,30.29,NNE,30,4.0,7.0,70,0.00,,,0.00,Wunderground v.1.15,2013-01-03 11:18:00,
2013-01-03 05:22:00,37.3,28.4,30.29,North,0,4.0,4.0,70,0.00,,,0.00,Wunderground v.1.15,2013-01-03 11:22:00,
2013-01-03 05:23:00,37.3,28.4,30.29,North,0,4.0,6.0,70,0.00,,,0.00,Wunderground v.1.15,2013-01-03 11:23:00,
2013-01-03 05:25:00,37.3,28.4,30.29,NE,52,5.0,8.0,70,0.00,,,0.00,Wunderground v.1.15,2013-01-03 11:25:00,
2013-01-03 05:26:00,37.3,28.4,30.29,NNE,30,5.0,8.0,70,0.00,,,0.00,Wunderground v.1.15,2013-01-03 11:26:00,
2013-01-03 05:30:00,37.3,28.1,30.29,NNE,25,5.0,8.0,69,0.00,,,0.00,Wunderground v.1.15,2013-01-03 11:30:00,
2013-01-03 05:31:00,37.3,28.1,30.29,NE,41,5.0,5.0,69,0.00,,,0.00,Wunderground v.1.15,2013-01-03 11:31:00,
2013-01-03 05:33:00,37.3,28.1,30.29,North,7,4.0,5.0,69,0.00,,,0.00,Wunderground v.1.15,2013-01-03 11:33:00,
2013-01-03 05:37:00,37.3,28.4,30.29,North,6,3.0,5.0,70,0.00,,,0.00,Wunderground v.1.15,2013-01-03 11:37:00,
2013-01-03 05:38:00,37.3,28.4,30.29,North,6,3.0,5.0,70,0.00,,,0.00,Wunderground v.1.15,2013-01-03 11:38:00,
2013-01-03 05:40:00,37.3,28.4,30.29,NNE,21,3.0,5.0,70,0.00,,,0.00,Wunderground v.1.15,2013-01-03 11:40:00,
2013-01-03 05:42:00,37.3,28.4,30.29,NNE,32,3.0,8.0,70,0.00,,,0.00,Wunderground v.1.15,2013-01-03 11:42:00,
2013-01-03 05:43:00,37.3,28.4,30.29,North,0,3.0,8.0,70,0.00,,,0.00,Wunderground v.1.15,2013-01-03 11:43:00,
2013-01-03 05:45:00,37.3,28.1,30.28,North,10,3.0,8.0,69,0.00,,,0.00,Wunderground v.1.15,2013-01-03 11:45:00,
2013-01-03 05:47:00,37.3,28.4,30.28,North,357,3.0,8.0,70,0.00,,,0.00,Wunderground v.1.15,2013-01-03 11:47:00,
2013-01-03 05:50:00,37.3,28.1,30.28,NE,38,4.0,4.0,69,0.00,,,0.00,Wunderground v.1.15,2013-01-03 11:50:00,
2013-01-03 05:52:00,37.3,28.1,30.28,NE,40,4.0,7.0,69,0.00,,,0.00,Wunderground v.1.15,2013-01-03 11:52:00,
2013-01-03 05:54:00,37.3,28.1,30.28,NNE,18,4.0,7.0,69,0.00,,,0.00,Wunderground v.1.15,2013-01-03 11:54:00,
2013-01-03 05:56:00,37.3,28.1,30.28,North,1,4.0,7.0,69,0.00,,,0.00,Wunderground v.1.15,2013-01-03 11:56:00,
2013-01-03 05:57:00,37.3,28.1,30.28,North,7,5.0,7.0,69,0.00,,,0.00,Wunderground v.1.15,2013-01-03 11:57:00,
2013-01-03 05:58:00,37.3,28.1,30.28,NNE,25,5.0,7.0,69,0.00,,,0.00,Wunderground v.1.15,2013-01-03 11:58:00,
2013-01-03 06:03:00,37.3,28.1,30.29,North,0,5.0,7.0,69,0.00,,,0.00,Wunderground v.1.15,2013-01-03 12:03:00,
2013-01-03 06:04:00,37.3,28.1,30.29,North,359,5.0,7.0,69,0.00,,,0.00,Wunderground v.1.15,2013-01-03 12:04:00,
2013-01-03 06:06:00,37.3,28.1,30.29,North,0,5.0,7.0,69,0.00,,,0.00,Wunderground v.1.15,2013-01-03 12:06:00,
2013-01-03 06:07:00,37.3,28.1,30.29,NE,40,4.0,7.0,69,0.00,,,0.00,Wunderground v.1.15,2013-01-03 12:07:00,
2013-01-03 06:08:00,37.3,28.1,30.29,North,0,4.0,7.0,69,0.00,,,0.00,Wunderground v.1.15,2013-01-03 12:08:00,
2013-01-03 06:11:00,37.3,28.1,30.29,NNE,24,4.0,5.0,69,0.00,,,0.00,Wunderground v.1.15,2013-01-03 12:11:00,
2013-01-03 06:13:00,37.3,28.1,30.29,North,7,4.0,5.0,69,0.00,,,0.00,Wunderground v.1.15,2013-01-03 12:13:00,
2013-01-03 06:14:00,37.5,28.2,30.29,North,350,4.0,5.0,69,0.00,,,0.00,Wunderground v.1.15,2013-01-03 12:14:00,
2013-01-03 06:16:00,37.5,28.2,30.29,North,359,4.0,5.0,69,0.00,,,0.00,Wunderground v.1.15,2013-01-03 12:16:00,
2013-01-03 06:20:00,37.5,28.2,30.29,North,0,4.0,4.0,69,0.00,,,0.00,Wunderground v.1.15,2013-01-03 12:20:00,
2013-01-03 06:21:00,37.5,28.2,30.29,North,0,4.0,7.0,69,0.00,,,0.00,Wunderground v.1.15,2013-01-03 12:21:00,
2013-01-03 06:22:00,37.5,28.2,30.29,NNE,20,4.0,7.0,69,0.00,,,0.00,Wunderground v.1.15,2013-01-03 12:22:00,
2013-01-03 06:24:00,37.5,28.2,30.29,North,350,4.0,7.0,69,0.00,,,0.00,Wunderground v.1.15,2013-01-03 12:24:00,
2013-01-03 06:27:00,37.5,28.2,30.29,North,359,5.0,7.0,69,0.00,,,0.00,Wunderground v.1.15,2013-01-03 12:27:00,
2013-01-03 06:30:00,37.5,28.2,30.29,North,0,5.0,5.0,69,0.00,,,0.00,Wunderground v.1.15,2013-01-03 12:30:00,
2013-01-03 06:31:00,37.5,28.2,30.28,NNE,30,5.0,6.0,69,0.00,,,0.00,Wunderground v.1.15,2013-01-03 12:31:00,
2013-01-03 06:33:00,37.5,28.2,30.28,North,0,5.0,6.0,69,0.00,,,0.00,Wunderground v.1.15,2013-01-03 12:33:00,
2013-01-03 06:35:00,37.5,28.2,30.28,North,0,5.0,6.0,69,0.00,,,0.00,Wunderground v.1.15,2013-01-03 12:35:00,
2013-01-03 06:36:00,37.5,28.2,30.28,North,359,4.0,6.0,69,0.00,,,0.00,Wunderground v.1.15,2013-01-03 12:36:00,
2013-01-03 06:40:00,37.5,28.2,30.28,North,0,4.0,4.0,69,0.00,,,0.00,Wunderground v.1.15,2013-01-03 12:40:00,
2013-01-03 06:41:00,37.5,28.2,30.28,North,7,4.0,4.0,69,0.00,,,0.00,Wunderground v.1.15,2013-01-03 12:41:00,
2013-01-03 06:45:00,37.5,28.2,30.28,NNE,24,3.0,5.0,69,0.00,,,0.00,Wunderground v.1.15,2013-01-03 12:45:00,
2013-01-03 06:50:00,37.5,28.2,30.30,NE,41,4.0,4.0,69,0.00,,,0.00,Wunderground v.1.15,2013-01-03 12:50:00,
2013-01-03 06:52:00,37.5,28.2,30.30,North,0,4.0,6.0,69,0.00,,,0.00,Wunderground v.1.15,2013-01-03 12:52:00,
2013-01-03 06:55:00,37.5,28.2,30.30,North,1,4.0,6.0,69,0.00,,,0.00,Wunderground v.1.15,2013-01-03 12:55:00,
2013-01-03 06:56:00,37.5,28.2,30.30,North,1,4.0,6.0,69,0.00,,,0.00,Wunderground v.1.15,2013-01-03 12:56:00,
2013-01-03 06:58:00,37.5,28.2,30.30,North,10,4.0,6.0,69,0.00,,,0.00,Wunderground v.1.15,2013-01-03 12:58:00,
2013-01-03 07:00:00,37.5,28.2,30.30,North,0,4.0,6.0,69,0.00,,,0.00,Wunderground v.1.15,2013-01-03 13:00:00,
2013-01-03 07:02:00,37.5,28.2,30.31,North,0,4.0,8.0,69,0.00,,,0.00,Wunderground v.1.15,2013-01-03 13:02:00,
2013-01-03 07:07:00,37.5,28.2,30.31,North,1,4.0,8.0,69,0.00,,,0.00,Wunderground v.1.15,2013-01-03 13:07:00,
2013-01-03 07:08:00,37.5,28.2,30.31,North,3,4.0,8.0,69,0.00,,,0.00,Wunderground v.1.15,2013-01-03 13:08:00,
2013-01-03 07:10:00,37.5,28.2,30.31,North,0,4.0,6.0,69,0.00,,,0.00,Wunderground v.1.15,2013-01-03 13:10:00,
2013-01-03 07:12:00,37.5,28.2,30.31,North,359,4.0,6.0,69,0.00,,,0.00,Wunderground v.1.15,2013-01-03 13:12:00,
2013-01-03 07:13:00,37.5,28.2,30.31,North,359,3.0,6.0,69,0.00,,,0.00,Wunderground v.1.15,2013-01-03 13:13:00,
2013-01-03 07:17:00,37.5,28.2,30.32,North,10,3.0,6.0,69,0.00,,,0.00,Wunderground v.1.15,2013-01-03 13:17:00,
2013-01-03 07:18:00,37.5,28.2,30.32,North,4,4.0,6.0,69,0.00,,,0.00,Wunderground v.1.15,2013-01-03 13:18:00,
2013-01-03 07:20:00,37.5,28.2,30.32,North,0,3.0,3.0,69,0.00,,,0.00,Wunderground v.1.15,2013-01-03 13:20:00,
2013-01-03 07:23:00,37.5,28.2,30.32,NNE,24,4.0,8.0,69,0.00,,,0.00,Wunderground v.1.15,2013-01-03 13:23:00,
2013-01-03 07:25:00,37.5,28.2,30.32,North,359,4.0,8.0,69,0.00,,,0.00,Wunderground v.1.15,2013-01-03 13:25:00,
2013-01-03 07:26:00,37.5,28.2,30.32,NE,52,4.0,10.0,69,0.00,,,0.00,Wunderground v.1.15,2013-01-03 13:26:00,
2013-01-03 07:28:00,37.5,28.2,30.32,NNE,28,5.0,10.0,69,0.00,,,0.00,Wunderground v.1.15,2013-01-03 13:28:00,
2013-01-03 07:32:00,37.5,28.2,30.32,North,6,5.0,7.0,69,0.00,,,0.00,Wunderground v.1.15,2013-01-03 13:32:00,
2013-01-03 07:34:00,37.5,28.2,30.32,North,6,5.0,7.0,69,0.00,,,0.00,Wunderground v.1.15,2013-01-03 13:34:00,
2013-01-03 07:35:00,37.5,28.2,30.32,NE,49,5.0,7.0,69,0.00,,,0.00,Wunderground v.1.15,2013-01-03 13:35:00,
2013-01-03 07:36:00,37.5,28.2,30.32,North,8,5.0,7.0,69,0.00,,,0.00,Wunderground v.1.15,2013-01-03 13:36:00,
2013-01-03 07:38:00,37.5,28.2,30.32,NNW,344,6.0,7.0,69,0.00,,,0.00,Wunderground v.1.15,2013-01-03 13:38:00,
2013-01-03 07:42:00,37.5,28.2,30.32,NNE,28,6.0,7.0,69,0.00,,,0.00,Wunderground v.1.15,2013-01-03 13:42:00,
2013-01-03 07:43:00,37.5,28.2,30.32,NNE,17,6.0,7.0,69,0.00,,,0.00,Wunderground v.1.15,2013-01-03 13:43:00,
2013-01-03 07:44:00,37.5,28.2,30.32,NNE,14,6.0,7.0,69,0.00,,,0.00,Wunderground v.1.15,2013-01-03 13:44:00,
2013-01-03 07:46:00,37.5,28.2,30.32,NNE,14,6.0,7.0,69,0.00,,,0.00,Wunderground v.1.15,2013-01-03 13:46:00,
2013-01-03 07:49:00,37.5,28.2,30.32,North,8,6.0,7.0,69,0.00,,,0.00,Wunderground v.1.15,2013-01-03 13:49:00,
2013-01-03 07:51:00,37.5,28.2,30.32,NE,45,5.0,8.0,69,0.00,,,0.00,Wunderground v.1.15,2013-01-03 13:51:00,
2013-01-03 07:53:00,37.5,28.2,30.32,North,354,5.0,8.0,69,0.00,,,0.00,Wunderground v.1.15,2013-01-03 13:53:00,
2013-01-03 07:54:00,37.5,28.2,30.32,NE,44,5.0,8.0,69,0.00,,,0.00,Wunderground v.1.15,2013-01-03 13:54:00,
2013-01-03 07:58:00,37.5,28.2,30.32,North,4,5.0,8.0,69,0.00,,,0.00,Wunderground v.1.15,2013-01-03 13:58:00,
2013-01-03 08:00:00,37.6,28.3,30.33,NNE,21,5.0,5.0,69,0.00,,,0.00,Wunderground v.1.15,2013-01-03 14:00:00,
2013-01-03 08:01:00,37.6,28.3,30.33,NE,54,5.0,5.0,69,0.00,,,0.00,Wunderground v.1.15,2013-01-03 14:01:00,
2013-01-03 08:03:00,37.6,28.3,30.33,NE,56,5.0,7.0,69,0.00,,,0.00,Wunderground v.1.15,2013-01-03 14:03:00,
2013-01-03 08:06:00,37.6,28.3,30.33,NE,40,4.0,7.0,69,0.00,,,0.00,Wunderground v.1.15,2013-01-03 14:06:00,
2013-01-03 08:08:00,37.6,28.3,30.33,North,11,4.0,7.0,69,0.00,,,0.00,Wunderground v.1.15,2013-01-03 14:08:00,
2013-01-03 08:09:00,37.8,28.5,30.33,NE,42,4.0,7.0,69,0.00,,,0.00,Wunderground v.1.15,2013-01-03 14:09:00,
2013-01-03 08:13:00,37.8,28.5,30.33,NE,48,5.0,10.0,69,0.00,,,0.00,Wunderground v.1.15,2013-01-03 14:13:00,
2013-01-03 08:16:00,37.8,28.5,30.33,North,0,5.0,10.0,69,0.00,,,0.00,Wunderground v.1.15,2013-01-03 14:16:00,
2013-01-03 08:17:00,37.8,28.5,30.33,NNE,25,5.0,10.0,69,0.00,,,0.00,Wunderground v.1.15,2013-01-03 14:17:00,
2013-01-03 08:18:00,37.9,28.6,30.33,North,0,5.0,10.0,69,0.00,,,0.00,Wunderground v.1.15,2013-01-03 14:18:00,
2013-01-03 08:21:00,37.9,28.6,30.33,NE,35,5.0,5.0,69,0.00,,,0.00,Wunderground v.1.15,2013-01-03 14:21:00,
2013-01-03 08:23:00,38.0,28.4,30.33,NNE,17,4.0,7.0,68,0.00,,,0.00,Wunderground v.1.15,2013-01-03 14:23:00,
2013-01-03 08:26:00,38.0,28.4,30.33,NNW,346,5.0,7.0,68,0.00,,,0.00,Wunderground v.1.15,2013-01-03 14:26:00,
2013-01-03 08:27:00,38.0,28.4,30.33,NE,44,5.0,7.0,68,0.00,,,0.00,Wunderground v.1.15,2013-01-03 14:27:00,
2013-01-03 08:32:00,38.2,28.2,30.34,NNE,20,6.0,8.0,67,0.00,,,0.00,Wunderground v.1.15,2013-01-03 14:32:00,
2013-01-03 08:33:00,38.2,28.2,30.34,NNE,24,6.0,8.0,67,0.00,,,0.00,Wunderground v.1.15,2013-01-03 14:33:00,
2013-01-03 08:35:00,38.3,28.3,30.34,NNE,28,6.0,8.0,67,0.00,,,0.00,Wunderground v.1.15,2013-01-03 14:35:00,
2013-01-03 08:37:00,38.3,28.3,30.34,ENE,58,5.0,8.0,67,0.00,,,0.00,Wunderground v.1.15,2013-01-03 14:37:00,
2013-01-03 08:39:00,38.3,28.3,30.34,NNE,27,5.0,8.0,67,0.00,,,0.00,Wunderground v.1.15,2013-01-03 14:39:00,
2013-01-03 08:41:00,38.5,28.5,30.34,North,1,4.0,7.0,67,0.00,,,0.00,Wunderground v.1.15,2013-01-03 14:41:00,
2013-01-03 08:44:00,38.5,28.1,30.34,North,359,5.0,7.0,66,0.00,,,0.00,Wunderground v.1.15,2013-01-03 14:44:00,
2013-01-03 08:45:00,38.5,28.5,30.34,NE,42,5.0,7.0,67,0.00,,,0.00,Wunderground v.1.15,2013-01-03 14:45:00,
2013-01-03 08:46:00,38.5,28.5,30.35,NNE,18,4.0,7.0,67,0.00,,,0.00,Wunderground v.1.15,2013-01-03 14:46:00,
2013-01-03 08:47:00,38.6,28.2,30.35,NE,49,5.0,11.0,66,0.00,,,0.00,Wunderground v.1.15,2013-01-03 14:47:00,
2013-01-03 08:49:00,38.6,28.2,30.35,NE,49,5.0,11.0,66,0.00,,,0.00,Wunderground v.1.15,2013-01-03 14:49:00,
2013-01-03 08:52:00,38.8,28.0,30.35,North,0,6.0,6.0,65,0.00,,,0.00,Wunderground v.1.15,2013-01-03 14:52:00,
2013-01-03 08:55:00,38.9,28.1,30.35,North,0,6.0,10.0,65,0.00,,,0.00,Wunderground v.1.15,2013-01-03 14:55:00,
2013-01-03 08:57:00,38.9,28.1,30.35,NE,35,6.0,10.0,65,0.00,,,0.00,Wunderground v.1.15,2013-01-03 14:57:00,
2013-01-03 08:59:00,39.1,28.3,30.35,NE,56,6.0,10.0,65,0.00,,,0.00,Wunderground v.1.15,2013-01-03 14:59:00,
2013-01-03 09:00:00,39.1,28.3,30.35,North,0,6.0,6.0,65,0.00,,,0.00,Wunderground v.1.15,2013-01-03 15:00:00,
2013-01-03 09:04:00,39.2,28.0,30.35,North,4,5.0,7.0,64,0.00,,,0.00,Wunderground v.1.15,2013-01-03 15:04:00,
2013-01-03 09:05:00,39.2,28.0,30.35,NE,52,5.0,7.0,64,0.00,,,0.00,Wunderground v.1.15,2013-01-03 15:05:00,
2013-01-03 09:07:00,39.2,28.0,30.35,NNE,28,5.0,7.0,64,0.00,,,0.00,Wunderground v.1.15,2013-01-03 15:07:00,
2013-01-03 09:11:00,39.3,28.1,30.35,NE,38,5.0,6.0,64,0.00,,,0.00,Wunderground v.1.15,2013-01-03 15:11:00,
2013-01-03 09:12:00,39.3,28.1,30.35,NNE,23,5.0,9.0,64,0.00,,,0.00,Wunderground v.1.15,2013-01-03 15:12:00,
2013-01-03 09:14:00,39.3,28.1,30.35,NE,37,6.0,9.0,64,0.00,,,0.00,Wunderground v.1.15,2013-01-03 15:14:00,
2013-01-03 09:16:00,39.3,28.1,30.36,North,0,6.0,9.0,64,0.00,,,0.00,Wunderground v.1.15,2013-01-03 15:16:00,
2013-01-03 09:20:00,39.5,28.3,30.36,NNE,13,6.0,7.0,64,0.00,,,0.00,Wunderground v.1.15,2013-01-03 15:20:00,
2013-01-03 09:23:00,39.5,28.3,30.36,ENE,69,6.0,7.0,64,0.00,,,0.00,Wunderground v.1.15,2013-01-03 15:23:00,
2013-01-03 09:24:00,39.6,28.0,30.36,ENE,58,6.0,7.0,63,0.00,,,0.00,Wunderground v.1.15,2013-01-03 15:24:00,
2013-01-03 09:27:00,39.6,28.0,30.36,ENE,71,6.0,7.0,63,0.00,,,0.00,Wunderground v.1.15,2013-01-03 15:27:00,
2013-01-03 09:29:00,39.6,28.0,30.36,NNE,23,6.0,7.0,63,0.00,,,0.00,Wunderground v.1.15,2013-01-03 15:29:00,
2013-01-03 09:30:00,39.8,28.6,30.36,North,8,5.0,9.0,64,0.00,,,0.00,Wunderground v.1.15,2013-01-03 15:30:00,
2013-01-03 09:32:00,39.8,28.2,30.37,NE,37,5.0,6.0,63,0.00,,,0.00,Wunderground v.1.15,2013-01-03 15:32:00,
2013-01-03 09:36:00,39.8,28.2,30.37,NNE,28,5.0,6.0,63,0.00,,,0.00,Wunderground v.1.15,2013-01-03 15:36:00,
2013-01-03 09:37:00,39.8,28.2,30.37,NNE,20,4.0,6.0,63,0.00,,,0.00,Wunderground v.1.15,2013-01-03 15:37:00,
2013-01-03 09:38:00,39.8,28.6,30.37,NE,37,4.0,6.0,64,0.00,,,0.00,Wunderground v.1.15,2013-01-03 15:38:00,
2013-01-03 09:41:00,39.9,28.3,30.37,North,359,4.0,4.0,63,0.00,,,0.00,Wunderground v.1.15,2013-01-03 15:41:00,
2013-01-03 09:42:00,39.9,28.3,30.37,NE,55,3.0,7.0,63,0.00,,,0.00,Wunderground v.1.15,2013-01-03 15:42:00,
2013-01-03 09:43:00,39.9,28.3,30.37,NE,47,3.0,7.0,63,0.00,,,0.00,Wunderground v.1.15,2013-01-03 15:43:00,
2013-01-03 09:46:00,39.9,28.3,30.37,NE,44,3.0,7.0,63,0.00,,,0.00,Wunderground v.1.15,2013-01-03 15:46:00,
2013-01-03 09:48:00,39.9,28.3,30.37,NE,48,4.0,10.0,63,0.00,,,0.00,Wunderground v.1.15,2013-01-03 15:48:00,
2013-01-03 09:51:00,39.9,28.3,30.37,NE,37,4.0,6.0,63,0.00,,,0.00,Wunderground v.1.15,2013-01-03 15:51:00,
2013-01-03 09:53:00,39.9,28.3,30.37,NNE,13,5.0,6.0,63,0.00,,,0.00,Wunderground v.1.15,2013-01-03 15:53:00,
2013-01-03 09:55:00,39.9,28.3,30.37,NNE,17,5.0,6.0,63,0.00,,,0.00,Wunderground v.1.15,2013-01-03 15:55:00,
2013-01-03 09:56:00,39.9,27.9,30.37,NNE,23,5.0,11.0,62,0.00,,,0.00,Wunderground v.1.15,2013-01-03 15:56:00,
2013-01-03 09:57:00,39.9,27.9,30.37,NNW,339,6.0,11.0,62,0.00,,,0.00,Wunderground v.1.15,2013-01-03 15:57:00,
2013-01-03 09:58:00,40.1,28.5,30.37,NE,51,5.0,11.0,63,0.00,,,0.00,Wunderground v.1.15,2013-01-03 15:58:00,
2013-01-03 10:02:00,40.1,28.1,30.39,NE,38,6.0,8.0,62,0.00,,,0.00,Wunderground v.1.15,2013-01-03 16:02:00,
2013-01-03 10:03:00,40.1,28.1,30.39,NE,52,6.0,8.0,62,0.00,,,0.00,Wunderground v.1.15,2013-01-03 16:03:00,
2013-01-03 10:06:00,40.1,28.1,30.39,NE,52,6.0,10.0,62,0.00,,,0.00,Wunderground v.1.15,2013-01-03 16:06:00,
2013-01-03 10:07:00,40.1,28.1,30.39,NE,37,6.0,10.0,62,0.00,,,0.00,Wunderground v.1.15,2013-01-03 16:07:00,
2013-01-03 10:08:00,40.1,28.1,30.39,NNE,20,6.0,10.0,62,0.00,,,0.00,Wunderground v.1.15,2013-01-03 16:08:00,
2013-01-03 10:10:00,40.1,28.1,30.39,NNE,28,6.0,8.0,62,0.00,,,0.00,Wunderground v.1.15,2013-01-03 16:10:00,
2013-01-03 10:15:00,40.2,28.2,30.39,North,3,6.0,8.0,62,0.00,,,0.00,Wunderground v.1.15,2013-01-03 16:15:00,
2013-01-03 10:16:00,40.2,28.6,30.39,NNE,23,6.0,8.0,63,0.00,,,0.00,Wunderground v.1.15,2013-01-03 16:16:00,
2013-01-03 10:20:00,40.2,28.2,30.39,NNE,24,5.0,10.0,62,0.00,,,0.00,Wunderground v.1.15,2013-01-03 16:20:00,
2013-01-03 10:21:00,40.2,28.2,30.39,NNE,13,6.0,11.0,62,0.00,,,0.00,Wunderground v.1.15,2013-01-03 16:21:00,
2013-01-03 10:24:00,40.2,28.2,30.39,NE,55,6.0,11.0,62,0.00,,,0.00,Wunderground v.1.15,2013-01-03 16:24:00,
2013-01-03 10:25:00,40.2,28.2,30.39,NE,41,6.0,11.0,62,0.00,,,0.00,Wunderground v.1.15,2013-01-03 16:25:00,
2013-01-03 10:27:00,40.2,28.2,30.39,ENE,66,6.0,11.0,62,0.00,,,0.00,Wunderground v.1.15,2013-01-03 16:27:00,
2013-01-03 10:30:00,40.2,28.2,30.39,NNE,16,6.0,11.0,62,0.00,,,0.00,Wunderground v.1.15,2013-01-03 16:30:00,
2013-01-03 10:31:00,40.2,28.2,30.39,North,8,5.0,5.0,62,0.00,,,0.00,Wunderground v.1.15,2013-01-03 16:31:00,
2013-01-03 10:35:00,40.3,28.3,30.39,NNE,32,5.0,10.0,62,0.00,,,0.00,Wunderground v.1.15,2013-01-03 16:35:00,
2013-01-03 10:36:00,40.3,28.3,30.39,North,356,5.0,10.0,62,0.00,,,0.00,Wunderground v.1.15,2013-01-03 16:36:00,
2013-01-03 10:38:00,40.3,28.3,30.39,North,0,5.0,10.0,62,0.00,,,0.00,Wunderground v.1.15,2013-01-03 16:38:00,
2013-01-03 10:42:00,40.5,28.5,30.39,North,0,5.0,6.0,62,0.00,,,0.00,Wunderground v.1.15,2013-01-03 16:42:00,
2013-01-03 10:43:00,40.5,28.1,30.39,North,356,5.0,6.0,61,0.00,,,0.00,Wunderground v.1.15,2013-01-03 16:43:00,
2013-01-03 10:47:00,40.6,28.2,30.40,NE,54,5.0,8.0,61,0.00,,,0.00,Wunderground v.1.15,2013-01-03 16:47:00,
2013-01-03 10:50:00,40.6,28.6,30.40,NNE,30,5.0,8.0,62,0.00,,,0.00,Wunderground v.1.15,2013-01-03 16:50:00,
2013-01-03 10:51:00,40.6,28.6,30.40,NE,47,5.0,6.0,62,0.00,,,0.00,Wunderground v.1.15,2013-01-03 16:51:00,
2013-01-03 10:53:00,40.8,28.4,30.40,NNE,28,5.0,10.0,61,0.00,,,0.00,Wunderground v.1.15,2013-01-03 16:53:00,
2013-01-03 10:55:00,40.8,28.4,30.40,NNE,14,5.0,10.0,61,0.00,,,0.00,Wunderground v.1.15,2013-01-03 16:55:00,
2013-01-03 10:56:00,40.8,28.4,30.40,NNE,16,5.0,10.0,61,0.00,,,0.00,Wunderground v.1.15,2013-01-03 16:56:00,
2013-01-03 11:00:00,40.9,28.1,30.40,NNE,28,4.0,5.0,60,0.00,,,0.00,Wunderground v.1.15,2013-01-03 17:00:00,
2013-01-03 11:01:00,40.9,28.5,30.40,NNE,27,4.0,5.0,61,0.00,,,0.00,Wunderground v.1.15,2013-01-03 17:01:00,
2013-01-03 11:05:00,40.9,28.5,30.40,North,11,5.0,7.0,61,0.00,,,0.00,Wunderground v.1.15,2013-01-03 17:05:00,
2013-01-03 11:08:00,40.9,28.5,30.40,North,0,5.0,7.0,61,0.00,,,0.00,Wunderground v.1.15,2013-01-03 17:08:00,
2013-01-03 11:10:00,41.1,28.7,30.40,North,356,5.0,5.0,61,0.00,,,0.00,Wunderground v.1.15,2013-01-03 17:10:00,
2013-01-03 11:13:00,41.1,28.3,30.40,North,359,5.0,9.0,60,0.00,,,0.00,Wunderground v.1.15,2013-01-03 17:13:00,
2013-01-03 11:15:00,41.1,28.3,30.40,NE,35,5.0,9.0,60,0.00,,,0.00,Wunderground v.1.15,2013-01-03 17:15:00,
2013-01-03 11:17:00,41.2,28.4,30.40,NNE,17,5.0,9.0,60,0.00,,,0.00,Wunderground v.1.15,2013-01-03 17:17:00,
2013-01-03 11:21:00,41.1,27.9,30.40,North,10,6.0,8.0,59,0.00,,,0.00,Wunderground v.1.15,2013-01-03 17:21:00,
2013-01-03 11:22:00,41.1,28.3,30.40,NNE,20,6.0,8.0,60,0.00,,,0.00,Wunderground v.1.15,2013-01-03 17:22:00,
2013-01-03 11:23:00,41.1,28.3,30.40,NNE,20,6.0,9.0,60,0.00,,,0.00,Wunderground v.1.15,2013-01-03 17:23:00,
2013-01-03 11:26:00,41.1,28.3,30.40,North,10,7.0,10.0,60,0.00,,,0.00,Wunderground v.1.15,2013-01-03 17:26:00,
2013-01-03 11:28:00,41.1,27.9,30.40,NE,40,7.0,11.0,59,0.00,,,0.00,Wunderground v.1.15,2013-01-03 17:28:00,
2013-01-03 11:30:00,41.1,28.3,30.40,NE,35,7.0,7.0,60,0.00,,,0.00,Wunderground v.1.15,2013-01-03 17:30:00,
2013-01-03 11:34:00,41.2,28.4,30.39,NNW,344,8.0,8.0,60,0.00,,,0.00,Wunderground v.1.15,2013-01-03 17:34:00,
2013-01-03 11:35:00,41.2,28.4,30.39,NNE,27,8.0,12.0,60,0.00,,,0.00,Wunderground v.1.15,2013-01-03 17:35:00,
2013-01-03 11:36:00,41.2,27.9,30.39,NE,48,8.0,12.0,59,0.00,,,0.00,Wunderground v.1.15,2013-01-03 17:36:00,
2013-01-03 11:38:00,41.2,27.9,30.39,North,0,8.0,12.0,59,0.00,,,0.00,Wunderground v.1.15,2013-01-03 17:38:00,
2013-01-03 11:40:00,41.3,28.4,30.39,NNE,21,7.0,12.0,60,0.00,,,0.00,Wunderground v.1.15,2013-01-03 17:40:00,
2013-01-03 11:43:00,41.3,28.0,30.39,North,0,7.0,12.0,59,0.00,,,0.00,Wunderground v.1.15,2013-01-03 17:43:00,
2013-01-03 11:45:00,41.3,28.0,30.39,NE,42,7.0,12.0,59,0.00,,,0.00,Wunderground v.1.15,2013-01-03 17:45:00,
2013-01-03 11:47:00,41.3,28.0,30.39,NE,47,7.0,12.0,59,0.00,,,0.00,Wunderground v.1.15,2013-01-03 17:47:00,
2013-01-03 11:48:00,41.5,28.2,30.39,NNE,25,7.0,12.0,59,0.00,,,0.00,Wunderground v.1.15,2013-01-03 17:48:00,
2013-01-03 11:51:00,41.5,27.8,30.39,NE,42,7.0,9.0,58,0.00,,,0.00,Wunderground v.1.15,2013-01-03 17:51:00,
2013-01-03 11:53:00,41.6,27.9,30.39,North,11,7.0,11.0,58,0.00,,,0.00,Wunderground v.1.15,2013-01-03 17:53:00,
2013-01-03 11:54:00,41.6,27.9,30.39,North,10,6.0,11.0,58,0.00,,,0.00,Wunderground v.1.15,2013-01-03 17:54:00,
2013-01-03 11:57:00,41.8,28.5,30.39,North,357,7.0,11.0,59,0.00,,,0.00,Wunderground v.1.15,2013-01-03 17:57:00,
2013-01-03 12:00:00,41.8,28.1,30.39,North,3,7.0,8.0,58,0.00,,,0.00,Wunderground v.1.15,2013-01-03 18:00:00,
2013-01-03 12:01:00,41.8,28.1,30.38,NE,54,6.0,13.0,58,0.00,,,0.00,Wunderground v.1.15,2013-01-03 18:01:00,
2013-01-03 12:02:00,41.8,28.1,30.38,NNE,31,7.0,13.0,58,0.00,,,0.00,Wunderground v.1.15,2013-01-03 18:02:00,
2013-01-03 12:05:00,41.6,27.9,30.38,NE,49,7.0,13.0,58,0.00,,,0.00,Wunderground v.1.15,2013-01-03 18:05:00,
2013-01-03 12:07:00,41.8,28.1,30.38,North,350,7.0,13.0,58,0.00,,,0.00,Wunderground v.1.15,2013-01-03 18:07:00,
2013-01-03 12:08:00,41.8,28.5,30.38,North,350,7.0,13.0,59,0.00,,,0.00,Wunderground v.1.15,2013-01-03 18:08:00,
2013-01-03 12:10:00,41.9,28.6,30.38,North,8,7.0,8.0,59,0.00,,,0.00,Wunderground v.1.15,2013-01-03 18:10:00,
2013-01-03 12:14:00,42.2,28.9,30.38,NNW,340,6.0,8.0,59,0.00,,,0.00,Wunderground v.1.15,2013-01-03 18:14:00,
2013-01-03 12:16:00,42.2,28.9,30.37,NNW,337,6.0,8.0,59,0.00,,,0.00,Wunderground v.1.15,2013-01-03 18:16:00,
2013-01-03 12:17:00,42.2,28.9,30.37,North,349,6.0,9.0,59,0.00,,,0.00,Wunderground v.1.15,2013-01-03 18:17:00,
2013-01-03 12:20:00,42.1,28.8,30.37,North,0,6.0,8.0,59,0.00,,,0.00,Wunderground v.1.15,2013-01-03 18:20:00,
2013-01-03 12:21:00,42.1,29.2,30.37,NNE,23,6.0,8.0,60,0.00,,,0.00,Wunderground v.1.15,2013-01-03 18:21:00,
2013-01-03 12:24:00,41.9,29.0,30.37,NE,44,6.0,11.0,60,0.00,,,0.00,Wunderground v.1.15,2013-01-03 18:24:00,
2013-01-03 12:25:00,41.9,29.0,30.37,North,0,6.0,11.0,60,0.00,,,0.00,Wunderground v.1.15,2013-01-03 18:25:00,
2013-01-03 12:26:00,41.9,29.0,30.37,NE,35,6.0,11.0,60,0.00,,,0.00,Wunderground v.1.15,2013-01-03 18:26:00,
2013-01-03 12:30:00,41.9,29.0,30.36,North,7,6.0,8.0,60,0.00,,,0.00,Wunderground v.1.15,2013-01-03 18:30:00,
2013-01-03 12:31:00,41.8,28.9,30.36,North,11,7.0,8.0,60,0.00,,,0.00,Wunderground v.1.15,2013-01-03 18:31:00,
2013-01-03 12:32:00,41.8,28.9,30.36,NE,34,7.0,8.0,60,0.00,,,0.00,Wunderground v.1.15,2013-01-03 18:32:00,
2013-01-03 12:37:00,41.9,29.0,30.36,North,1,7.0,9.0,60,0.00,,,0.00,Wunderground v.1.15,2013-01-03 18:37:00,
2013-01-03 12:40:00,41.8,28.9,30.36,NNE,14,7.0,7.0,60,0.00,,,0.00,Wunderground v.1.15,2013-01-03 18:40:00,
2013-01-03 12:42:00,41.9,29.0,30.36,North,0,7.0,9.0,60,0.00,,,0.00,Wunderground v.1.15,2013-01-03 18:42:00,
2013-01-03 12:43:00,41.9,29.0,30.36,North,1,7.0,9.0,60,0.00,,,0.00,Wunderground v.1.15,2013-01-03 18:43:00,
2013-01-03 12:46:00,42.1,29.6,30.35,North,0,7.0,9.0,61,0.00,,,0.00,Wunderground v.1.15,2013-01-03 18:46:00,
2013-01-03 12:47:00,42.2,29.7,30.35,North,1,7.0,9.0,61,0.00,,,0.00,Wunderground v.1.15,2013-01-03 18:47:00,
2013-01-03 12:50:00,42.2,29.3,30.35,NE,34,7.0,7.0,60,0.00,,,0.00,Wunderground v.1.15,2013-01-03 18:50:00,
2013-01-03 12:54:00,42.2,30.1,30.35,NNE,24,6.0,12.0,62,0.00,,,0.00,Wunderground v.1.15,2013-01-03 18:54:00,
2013-01-03 12:56:00,42.1,30.0,30.35,NNE,13,7.0,12.0,62,0.00,,,0.00,Wunderground v.1.15,2013-01-03 18:56:00,
2013-01-03 12:57:00,41.9,29.8,30.35,North,0,7.0,12.0,62,0.00,,,0.00,Wunderground v.1.15,2013-01-03 18:57:00,
2013-01-03 13:01:00,41.8,30.5,30.34,North,0,6.0,7.0,64,0.00,,,0.00,Wunderground v.1.15,2013-01-03 19:01:00,
2013-01-03 13:03:00,41.8,30.5,30.34,NE,45,6.0,7.0,64,0.00,,,0.00,Wunderground v.1.15,2013-01-03 19:03:00,
2013-01-03 13:04:00,41.9,31.0,30.34,North,350,5.0,7.0,65,0.00,,,0.00,Wunderground v.1.15,2013-01-03 19:04:00,
2013-01-03 13:05:00,41.9,30.6,30.34,NE,38,5.0,7.0,64,0.00,,,0.00,Wunderground v.1.15,2013-01-03 19:05:00,
2013-01-03 13:07:00,41.9,31.0,30.34,NNW,336,4.0,7.0,65,0.00,,,0.00,Wunderground v.1.15,2013-01-03 19:07:00,
2013-01-03 13:10:00,42.1,30.0,30.34,North,0,5.0,6.0,62,0.00,,,0.00,Wunderground v.1.15,2013-01-03 19:10:00,
2013-01-03 13:11:00,42.1,30.0,30.34,NNE,24,5.0,7.0,62,0.00,,,0.00,Wunderground v.1.15,2013-01-03 19:11:00,
2013-01-03 13:12:00,42.1,30.0,30.34,NE,45,5.0,7.0,62,0.00,,,0.00,Wunderground v.1.15,2013-01-03 19:12:00,
2013-01-03 13:14:00,42.2,30.1,30.34,North,357,5.0,7.0,62,0.00,,,0.00,Wunderground v.1.15,2013-01-03 19:14:00,
2013-01-03 13:16:00,42.3,30.6,30.34,NNE,24,5.0,7.0,63,0.00,,,0.00,Wunderground v.1.15,2013-01-03 19:16:00,
2013-01-03 13:58:00,44.1,29.8,30.32,NNW,333,6.0,11.0,57,0.00,,,0.00,Wunderground v.1.15,2013-01-03 19:58:00,
2013-01-03 14:00:00,44.1,29.8,30.32,NNE,16,6.0,6.0,57,0.00,,,0.00,Wunderground v.1.15,2013-01-03 20:00:00,
2013-01-03 14:02:00,44.2,29.0,30.32,North,0,5.0,6.0,55,0.00,,,0.00,Wunderground v.1.15,2013-01-03 20:02:00,
2013-01-03 14:05:00,44.2,29.5,30.32,NNW,329,5.0,6.0,56,0.00,,,0.00,Wunderground v.1.15,2013-01-03 20:05:00,
2013-01-03 14:06:00,44.2,29.5,30.32,NNE,20,5.0,6.0,56,0.00,,,0.00,Wunderground v.1.15,2013-01-03 20:06:00,
2013-01-03 14:07:00,44.2,29.0,30.32,NE,37,5.0,9.0,55,0.00,,,0.00,Wunderground v.1.15,2013-01-03 20:07:00,
2013-01-03 14:13:00,44.1,28.9,30.32,North,4,6.0,9.0,55,0.00,,,0.00,Wunderground v.1.15,2013-01-03 20:13:00,
2013-01-03 14:14:00,43.9,28.3,30.32,NE,40,6.0,9.0,54,0.00,,,0.00,Wunderground v.1.15,2013-01-03 20:14:00,
2013-01-03 14:18:00,44.1,28.9,30.32,NNE,30,7.0,9.0,55,0.00,,,0.00,Wunderground v.1.15,2013-01-03 20:18:00,
2013-01-03 14:20:00,44.1,28.9,30.32,NNE,31,7.0,7.0,55,0.00,,,0.00,Wunderground v.1.15,2013-01-03 20:20:00,
2013-01-03 14:21:00,44.1,28.9,30.32,NW,312,6.0,14.0,55,0.00,,,0.00,Wunderground v.1.15,2013-01-03 20:21:00,
2013-01-03 14:26:00,44.1,28.5,30.32,North,0,7.0,14.0,54,0.00,,,0.00,Wunderground v.1.15,2013-01-03 20:26:00,
2013-01-03 14:27:00,44.1,28.9,30.32,North,0,7.0,14.0,55,0.00,,,0.00,Wunderground v.1.15,2013-01-03 20:27:00,
2013-01-03 14:31:00,44.1,28.9,30.32,North,7,8.0,8.0,55,0.00,,,0.00,Wunderground v.1.15,2013-01-03 20:31:00,
2013-01-03 14:32:00,44.1,28.9,30.32,NNE,25,7.0,8.0,55,0.00,,,0.00,Wunderground v.1.15,2013-01-03 20:32:00,
2013-01-03 14:36:00,44.1,28.9,30.32,North,0,7.0,8.0,55,0.00,,,0.00,Wunderground v.1.15,2013-01-03 20:36:00,
2013-01-03 14:38:00,44.1,28.9,30.32,North,7,7.0,8.0,55,0.00,,,0.00,Wunderground v.1.15,2013-01-03 20:38:00,
2013-01-03 14:40:00,44.1,28.9,30.32,North,0,7.0,11.0,55,0.00,,,0.00,Wunderground v.1.15,2013-01-03 20:40:00,
2013-01-03 14:41:00,44.1,28.9,30.32,North,0,7.0,11.0,55,0.00,,,0.00,Wunderground v.1.15,2013-01-03 20:41:00,
2013-01-03 14:43:00,44.1,29.4,30.32,NW,325,7.0,11.0,56,0.00,,,0.00,Wunderground v.1.15,2013-01-03 20:43:00,
2013-01-03 14:44:00,44.1,29.4,30.32,North,0,6.0,11.0,56,0.00,,,0.00,Wunderground v.1.15,2013-01-03 20:44:00,
2013-01-03 14:46:00,44.1,29.4,30.32,North,11,6.0,11.0,56,0.00,,,0.00,Wunderground v.1.15,2013-01-03 20:46:00,
2013-01-03 14:48:00,44.1,29.8,30.32,North,0,5.0,11.0,57,0.00,,,0.00,Wunderground v.1.15,2013-01-03 20:48:00,
2013-01-03 14:51:00,44.2,29.5,30.32,North,352,4.0,6.0,56,0.00,,,0.00,Wunderground v.1.15,2013-01-03 20:51:00,
2013-01-03 14:52:00,44.2,29.9,30.32,NNE,18,4.0,6.0,57,0.00,,,0.00,Wunderground v.1.15,2013-01-03 20:52:00,
2013-01-03 14:54:00,44.3,30.0,30.32,North,3,4.0,8.0,57,0.00,,,0.00,Wunderground v.1.15,2013-01-03 20:54:00,
2013-01-03 14:56:00,44.5,30.2,30.32,NNW,344,4.0,8.0,57,0.00,,,0.00,Wunderground v.1.15,2013-01-03 20:56:00,
2013-01-03 15:00:00,44.6,29.9,30.32,North,352,4.0,10.0,56,0.00,,,0.00,Wunderground v.1.15,2013-01-03 21:00:00,
2013-01-03 15:02:00,44.6,29.9,30.32,NNW,336,5.0,10.0,56,0.00,,,0.00,Wunderground v.1.15,2013-01-03 21:02:00,
2013-01-03 15:05:00,44.8,30.5,30.32,NW,322,5.0,10.0,57,0.00,,,0.00,Wunderground v.1.15,2013-01-03 21:05:00,
2013-01-03 15:07:00,44.8,29.6,30.32,North,0,6.0,10.0,55,0.00,,,0.00,Wunderground v.1.15,2013-01-03 21:07:00,
2013-01-03 15:08:00,44.8,29.6,30.32,NNW,329,6.0,10.0,55,0.00,,,0.00,Wunderground v.1.15,2013-01-03 21:08:00,
2013-01-03 15:11:00,44.6,29.0,30.32,NNW,342,6.0,8.0,54,0.00,,,0.00,Wunderground v.1.15,2013-01-03 21:11:00,
2013-01-03 15:15:00,44.6,29.4,30.32,NNW,342,7.0,8.0,55,0.00,,,0.00,Wunderground v.1.15,2013-01-03 21:15:00,
2013-01-03 15:16:00,44.6,29.0,30.32,NNE,20,7.0,8.0,54,0.00,,,0.00,Wunderground v.1.15,2013-01-03 21:16:00,
2013-01-03 15:22:00,44.5,28.9,30.32,NW,318,6.0,9.0,54,0.00,,,0.00,Wunderground v.1.15,2013-01-03 21:22:00,
2013-01-03 15:23:00,44.5,29.3,30.32,North,357,6.0,9.0,55,0.00,,,0.00,Wunderground v.1.15,2013-01-03 21:23:00,
2013-01-03 15:27:00,44.5,28.9,30.32,NNE,16,6.0,9.0,54,0.00,,,0.00,Wunderground v.1.15,2013-01-03 21:27:00,
2013-01-03 15:28:00,44.5,28.9,30.32,North,353,6.0,9.0,54,0.00,,,0.00,Wunderground v.1.15,2013-01-03 21:28:00,
2013-01-03 15:31:00,44.3,29.1,30.32,North,0,7.0,10.0,55,0.00,,,0.00,Wunderground v.1.15,2013-01-03 21:31:00,
2013-01-03 15:33:00,44.3,29.1,30.32,NNE,23,7.0,10.0,55,0.00,,,0.00,Wunderground v.1.15,2013-01-03 21:33:00,
2013-01-03 15:36:00,44.3,29.1,30.32,North,10,7.0,12.0,55,0.00,,,0.00,Wunderground v.1.15,2013-01-03 21:36:00,
2013-01-03 15:38:00,44.3,29.6,30.32,NNE,24,7.0,12.0,56,0.00,,,0.00,Wunderground v.1.15,2013-01-03 21:38:00,
2013-01-03 15:42:00,44.3,29.6,30.32,NNW,340,6.0,7.0,56,0.00,,,0.00,Wunderground v.1.15,2013-01-03 21:42:00,
2013-01-03 15:44:00,44.3,29.6,30.32,North,3,6.0,7.0,56,0.00,,,0.00,Wunderground v.1.15,2013-01-03 21:44:00,
2013-01-03 15:45:00,44.5,29.8,30.32,NNE,16,6.0,7.0,56,0.00,,,0.00,Wunderground v.1.15,2013-01-03 21:45:00,
2013-01-03 15:48:00,44.5,29.8,30.32,NNE,25,6.0,10.0,56,0.00,,,0.00,Wunderground v.1.15,2013-01-03 21:48:00,
2013-01-03 15:50:00,44.6,29.9,30.32,North,349,6.0,10.0,56,0.00,,,0.00,Wunderground v.1.15,2013-01-03 21:50:00,
2013-01-03 15:53:00,44.6,29.9,30.32,NE,38,6.0,6.0,56,0.00,,,0.00,Wunderground v.1.15,2013-01-03 21:53:00,
2013-01-03 15:54:00,44.6,29.9,30.32,NNE,16,6.0,6.0,56,0.00,,,0.00,Wunderground v.1.15,2013-01-03 21:54:00,
2013-01-03 15:56:00,44.6,29.4,30.32,NNE,28,6.0,8.0,55,0.00,,,0.00,Wunderground v.1.15,2013-01-03 21:56:00,
2013-01-03 15:58:00,44.6,29.9,30.32,North,0,6.0,8.0,56,0.00,,,0.00,Wunderground v.1.15,2013-01-03 21:58:00,
2013-01-03 16:01:00,44.6,29.4,30.32,North,0,5.0,8.0,55,0.00,,,0.00,Wunderground v.1.15,2013-01-03 22:01:00,
2013-01-03 16:03:00,44.6,29.9,30.32,NNW,347,5.0,8.0,56,0.00,,,0.00,Wunderground v.1.15,2013-01-03 22:03:00,
2013-01-03 16:04:00,44.6,29.9,30.32,NNW,330,6.0,8.0,56,0.00,,,0.00,Wunderground v.1.15,2013-01-03 22:04:00,
2013-01-03 16:07:00,44.6,29.9,30.32,North,353,5.0,8.0,56,0.00,,,0.00,Wunderground v.1.15,2013-01-03 22:07:00,
2013-01-03 16:09:00,44.6,29.4,30.32,North,0,5.0,8.0,55,0.00,,,0.00,Wunderground v.1.15,2013-01-03 22:09:00,
2013-01-03 16:10:00,44.6,29.4,30.32,North,349,6.0,6.0,55,0.00,,,0.00,Wunderground v.1.15,2013-01-03 22:10:00,
2013-01-03 16:12:00,44.6,29.4,30.32,NW,316,5.0,7.0,55,0.00,,,0.00,Wunderground v.1.15,2013-01-03 22:12:00,
2013-01-03 16:14:00,44.6,29.0,30.32,NW,322,5.0,7.0,54,0.00,,,0.00,Wunderground v.1.15,2013-01-03 22:14:00,
2013-01-03 16:15:00,44.6,29.0,30.32,North,357,6.0,7.0,54,0.00,,,0.00,Wunderground v.1.15,2013-01-03 22:15:00,
2013-01-03 16:18:00,44.6,29.0,30.32,North,4,6.0,7.0,54,0.00,,,0.00,Wunderground v.1.15,2013-01-03 22:18:00,
2013-01-03 16:19:00,44.6,29.0,30.32,North,8,6.0,7.0,54,0.00,,,0.00,Wunderground v.1.15,2013-01-03 22:19:00,
2013-01-03 16:22:00,44.6,29.0,30.32,NNE,20,6.0,7.0,54,0.00,,,0.00,Wunderground v.1.15,2013-01-03 22:22:00,
2013-01-03 16:25:00,44.5,29.3,30.32,NNE,21,5.0,11.0,55,0.00,,,0.00,Wunderground v.1.15,2013-01-03 22:25:00,
2013-01-03 16:26:00,44.5,29.3,30.32,North,357,6.0,11.0,55,0.00,,,0.00,Wunderground v.1.15,2013-01-03 22:26:00,
2013-01-03 16:28:00,44.5,29.3,30.32,North,359,6.0,11.0,55,0.00,,,0.00,Wunderground v.1.15,2013-01-03 22:28:00,
2013-01-03 16:31:00,44.3,29.1,30.32,North,8,6.0,6.0,55,0.00,,,0.00,Wunderground v.1.15,2013-01-03 22:31:00,
2013-01-03 16:33:00,44.3,29.6,30.32,NNE,16,6.0,6.0,56,0.00,,,0.00,Wunderground v.1.15,2013-01-03 22:33:00,
2013-01-03 16:34:00,44.3,29.6,30.32,North,359,6.0,6.0,56,0.00,,,0.00,Wunderground v.1.15,2013-01-03 22:34:00,
2013-01-03 16:37:00,44.3,29.6,30.32,NNE,27,5.0,6.0,56,0.00,,,0.00,Wunderground v.1.15,2013-01-03 22:37:00,
2013-01-03 16:40:00,44.2,29.5,30.32,NE,37,5.0,10.0,56,0.00,,,0.00,Wunderground v.1.15,2013-01-03 22:40:00,
2013-01-03 16:42:00,44.2,29.9,30.32,NNE,21,5.0,6.0,57,0.00,,,0.00,Wunderground v.1.15,2013-01-03 22:42:00,
2013-01-03 16:43:00,44.2,29.9,30.32,North,0,5.0,7.0,57,0.00,,,0.00,Wunderground v.1.15,2013-01-03 22:43:00,
2013-01-03 16:45:00,44.2,29.9,30.32,North,0,6.0,7.0,57,0.00,,,0.00,Wunderground v.1.15,2013-01-03 22:45:00,
2013-01-03 16:49:00,44.2,29.9,30.33,North,6,6.0,7.0,57,0.00,,,0.00,Wunderground v.1.15,2013-01-03 22:49:00,
2013-01-03 16:51:00,44.2,30.3,30.33,North,352,6.0,6.0,58,0.00,,,0.00,Wunderground v.1.15,2013-01-03 22:51:00,
2013-01-03 16:53:00,44.1,30.3,30.33,NNW,347,6.0,6.0,58,0.00,,,0.00,Wunderground v.1.15,2013-01-03 22:53:00,
2013-01-03 16:54:00,44.1,30.3,30.33,North,0,6.0,6.0,58,0.00,,,0.00,Wunderground v.1.15,2013-01-03 22:54:00,
2013-01-03 16:56:00,44.1,30.3,30.33,North,0,6.0,7.0,58,0.00,,,0.00,Wunderground v.1.15,2013-01-03 22:56:00,
2013-01-03 16:58:00,44.1,30.3,30.33,North,349,6.0,7.0,58,0.00,,,0.00,Wunderground v.1.15,2013-01-03 22:58:00,
2013-01-03 16:59:00,44.1,30.3,30.33,North,0,6.0,7.0,58,0.00,,,0.00,Wunderground v.1.15,2013-01-03 22:59:00,
2013-01-03 17:03:00,44.1,30.3,30.33,North,352,5.0,10.0,58,0.00,,,0.00,Wunderground v.1.15,2013-01-03 23:03:00,
2013-01-03 17:04:00,44.1,30.3,30.33,North,10,5.0,10.0,58,0.00,,,0.00,Wunderground v.1.15,2013-01-03 23:04:00,
2013-01-03 17:07:00,43.9,30.1,30.33,North,0,6.0,10.0,58,0.00,,,0.00,Wunderground v.1.15,2013-01-03 23:07:00,
2013-01-03 17:10:00,43.9,30.1,30.33,North,0,6.0,6.0,58,0.00,,,0.00,Wunderground v.1.15,2013-01-03 23:10:00,
2013-01-03 17:11:00,43.9,30.1,30.33,NE,34,6.0,6.0,58,0.00,,,0.00,Wunderground v.1.15,2013-01-03 23:11:00,
2013-01-03 17:12:00,43.9,30.5,30.33,NNE,20,6.0,6.0,59,0.00,,,0.00,Wunderground v.1.15,2013-01-03 23:12:00,
2013-01-03 17:16:00,43.9,30.5,30.33,NNW,330,6.0,7.0,59,0.00,,,0.00,Wunderground v.1.15,2013-01-03 23:16:00,
2013-01-03 17:17:00,43.9,30.5,30.33,NNE,27,6.0,7.0,59,0.00,,,0.00,Wunderground v.1.15,2013-01-03 23:17:00,
2013-01-03 17:19:00,43.8,30.4,30.33,NE,34,6.0,7.0,59,0.00,,,0.00,Wunderground v.1.15,2013-01-03 23:19:00,
2013-01-03 17:21:00,43.8,30.4,30.33,North,0,6.0,8.0,59,0.00,,,0.00,Wunderground v.1.15,2013-01-03 23:21:00,
2013-01-03 17:23:00,43.8,30.8,30.33,North,359,6.0,8.0,60,0.00,,,0.00,Wunderground v.1.15,2013-01-03 23:23:00,
2013-01-03 17:24:00,43.8,30.4,30.33,North,0,6.0,8.0,59,0.00,,,0.00,Wunderground v.1.15,2013-01-03 23:24:00,
2013-01-03 17:26:00,43.8,30.8,30.33,North,6,6.0,10.0,60,0.00,,,0.00,Wunderground v.1.15,2013-01-03 23:26:00,
2013-01-03 17:27:00,43.8,30.8,30.33,North,357,6.0,10.0,60,0.00,,,0.00,Wunderground v.1.15,2013-01-03 23:27:00,
2013-01-03 17:31:00,43.8,31.6,30.33,North,10,5.0,6.0,62,0.00,,,0.00,Wunderground v.1.15,2013-01-03 23:31:00,
2013-01-03 17:33:00,43.6,31.4,30.33,North,0,5.0,8.0,62,0.00,,,0.00,Wunderground v.1.15,2013-01-03 23:33:00,
2013-01-03 17:34:00,43.6,31.4,30.33,NNE,16,5.0,8.0,62,0.00,,,0.00,Wunderground v.1.15,2013-01-03 23:34:00,
2013-01-03 17:37:00,43.5,31.7,30.33,NNE,31,5.0,8.0,63,0.00,,,0.00,Wunderground v.1.15,2013-01-03 23:37:00,
2013-01-03 17:38:00,43.5,31.7,30.33,North,0,5.0,8.0,63,0.00,,,0.00,Wunderground v.1.15,2013-01-03 23:38:00,
2013-01-03 17:40:00,43.5,31.3,30.33,NNE,31,6.0,6.0,62,0.00,,,0.00,Wunderground v.1.15,2013-01-03 23:40:00,
2013-01-03 17:43:00,43.3,31.1,30.33,NNE,30,5.0,7.0,62,0.00,,,0.00,Wunderground v.1.15,2013-01-03 23:43:00,
2013-01-03 17:45:00,43.3,31.1,30.33,North,0,5.0,8.0,62,0.00,,,0.00,Wunderground v.1.15,2013-01-03 23:45:00,
2013-01-03 17:49:00,43.3,31.1,30.34,NNE,16,5.0,8.0,62,0.00,,,0.00,Wunderground v.1.15,2013-01-03 23:49:00,
2013-01-03 17:51:00,43.3,31.1,30.34,North,349,5.0,6.0,62,0.00,,,0.00,Wunderground v.1.15,2013-01-03 23:51:00,
2013-01-03 17:54:00,43.3,31.1,30.34,NNE,28,5.0,6.0,62,0.00,,,0.00,Wunderground v.1.15,2013-01-03 23:54:00,
2013-01-03 17:55:00,43.3,31.1,30.34,NE,40,5.0,12.0,62,0.00,,,0.00,Wunderground v.1.15,2013-01-03 23:55:00,
2013-01-03 17:57:00,43.3,31.1,30.34,NE,44,5.0,12.0,62,0.00,,,0.00,Wunderground v.1.15,2013-01-03 23:57:00,
2013-01-03 17:58:00,43.3,31.1,30.34,NNE,16,5.0,12.0,62,0.00,,,0.00,Wunderground v.1.15,2013-01-03 23:58:00,
2013-01-03 18:00:00,43.3,31.1,30.34,North,0,5.0,5.0,62,0.00,,,0.00,Wunderground v.1.15,2013-01-04 00:00:00,
2013-01-03 18:03:00,43.3,31.1,30.34,NNW,346,5.0,6.0,62,0.00,,,0.00,Wunderground v.1.15,2013-01-04 00:03:00,
2013-01-03 18:05:00,43.3,31.1,30.34,North,352,5.0,8.0,62,0.00,,,0.00,Wunderground v.1.15,2013-01-04 00:05:00,
2013-01-03 18:08:00,43.3,30.7,30.34,North,0,5.0,8.0,61,0.00,,,0.00,Wunderground v.1.15,2013-01-04 00:08:00,
2013-01-03 18:09:00,43.3,30.7,30.34,NNW,347,5.0,8.0,61,0.00,,,0.00,Wunderground v.1.15,2013-01-04 00:09:00,
2013-01-03 18:10:00,43.3,31.1,30.34,North,7,5.0,5.0,62,0.00,,,0.00,Wunderground v.1.15,2013-01-04 00:10:00,
2013-01-03 18:14:00,43.3,30.7,30.34,North,3,5.0,7.0,61,0.00,,,0.00,Wunderground v.1.15,2013-01-04 00:14:00,
2013-01-03 18:15:00,43.3,30.7,30.34,NE,45,5.0,7.0,61,0.00,,,0.00,Wunderground v.1.15,2013-01-04 00:15:00,
2013-01-03 18:20:00,43.3,30.7,30.34,NNE,21,5.0,5.0,61,0.00,,,0.00,Wunderground v.1.15,2013-01-04 00:20:00,
2013-01-03 18:21:00,43.3,30.7,30.34,NNE,23,5.0,5.0,61,0.00,,,0.00,Wunderground v.1.15,2013-01-04 00:21:00,
2013-01-03 18:24:00,43.3,30.7,30.34,NNE,31,5.0,8.0,61,0.00,,,0.00,Wunderground v.1.15,2013-01-04 00:24:00,
2013-01-03 18:25:00,43.3,30.7,30.34,North,359,5.0,8.0,61,0.00,,,0.00,Wunderground v.1.15,2013-01-04 00:25:00,
2013-01-03 18:26:00,43.3,30.7,30.34,North,356,5.0,8.0,61,0.00,,,0.00,Wunderground v.1.15,2013-01-04 00:26:00,
2013-01-03 18:28:00,43.3,30.7,30.34,NNE,16,5.0,8.0,61,0.00,,,0.00,Wunderground v.1.15,2013-01-04 00:28:00,
2013-01-03 18:29:00,43.3,30.7,30.34,NE,40,5.0,8.0,61,0.00,,,0.00,Wunderground v.1.15,2013-01-04 00:29:00,
2013-01-03 18:32:00,43.2,30.6,30.35,NNE,21,4.0,6.0,61,0.00,,,0.00,Wunderground v.1.15,2013-01-04 00:32:00,
2013-01-03 18:34:00,43.2,30.6,30.35,NNE,20,4.0,6.0,61,0.00,,,0.00,Wunderground v.1.15,2013-01-04 00:34:00,
2013-01-03 18:35:00,43.2,30.6,30.35,NNE,21,4.0,6.0,61,0.00,,,0.00,Wunderground v.1.15,2013-01-04 00:35:00,
2013-01-03 18:36:00,43.2,30.6,30.35,NNE,30,4.0,6.0,61,0.00,,,0.00,Wunderground v.1.15,2013-01-04 00:36:00,
2013-01-03 18:37:00,43.2,30.6,30.35,NNE,31,5.0,7.0,61,0.00,,,0.00,Wunderground v.1.15,2013-01-04 00:37:00,
2013-01-03 18:39:00,43.2,30.6,30.35,NE,49,5.0,7.0,61,0.00,,,0.00,Wunderground v.1.15,2013-01-04 00:39:00,
2013-01-03 18:44:00,43.2,30.6,30.35,North,353,5.0,8.0,61,0.00,,,0.00,Wunderground v.1.15,2013-01-04 00:44:00,
2013-01-03 18:45:00,43.2,30.6,30.35,NNE,20,5.0,8.0,61,0.00,,,0.00,Wunderground v.1.15,2013-01-04 00:45:00,
2013-01-03 18:47:00,43.2,30.6,30.35,North,10,5.0,8.0,61,0.00,,,0.00,Wunderground v.1.15,2013-01-04 00:47:00,
2013-01-03 18:49:00,43.2,30.6,30.35,North,359,5.0,8.0,61,0.00,,,0.00,Wunderground v.1.15,2013-01-04 00:49:00,
2013-01-03 18:50:00,43.2,30.6,30.35,North,3,5.0,5.0,61,0.00,,,0.00,Wunderground v.1.15,2013-01-04 00:50:00,
2013-01-03 18:55:00,43.1,30.6,30.35,North,354,4.0,6.0,61,0.00,,,0.00,Wunderground v.1.15,2013-01-04 00:55:00,
2013-01-03 18:56:00,43.1,30.6,30.35,NE,37,4.0,6.0,61,0.00,,,0.00,Wunderground v.1.15,2013-01-04 00:56:00,
2013-01-03 18:57:00,43.1,30.6,30.35,NNE,27,5.0,12.0,61,0.00,,,0.00,Wunderground v.1.15,2013-01-04 00:57:00,
2013-01-03 18:59:00,43.1,30.1,30.35,North,0,5.0,12.0,60,0.00,,,0.00,Wunderground v.1.15,2013-01-04 00:59:00,
2013-01-03 19:01:00,43.1,30.1,30.35,NE,41,5.0,9.0,60,0.00,,,0.00,Wunderground v.1.15,2013-01-04 01:01:00,
2013-01-03 19:02:00,43.1,30.6,30.35,NNE,17,6.0,9.0,61,0.00,,,0.00,Wunderground v.1.15,2013-01-04 01:02:00,
2013-01-03 19:04:00,43.1,30.6,30.35,North,0,6.0,9.0,61,0.00,,,0.00,Wunderground v.1.15,2013-01-04 01:04:00,
2013-01-03 19:09:00,43.1,30.1,30.35,North,0,5.0,9.0,60,0.00,,,0.00,Wunderground v.1.15,2013-01-04 01:09:00,
2013-01-03 19:10:00,43.1,30.1,30.35,NE,48,5.0,11.0,60,0.00,,,0.00,Wunderground v.1.15,2013-01-04 01:10:00,
2013-01-03 19:15:00,42.9,30.0,30.35,NNE,14,5.0,11.0,60,0.00,,,0.00,Wunderground v.1.15,2013-01-04 01:15:00,
2013-01-03 19:16:00,42.9,30.0,30.36,NE,45,4.0,11.0,60,0.00,,,0.00,Wunderground v.1.15,2013-01-04 01:16:00,
2013-01-03 19:20:00,42.9,29.5,30.36,NE,47,5.0,9.0,59,0.00,,,0.00,Wunderground v.1.15,2013-01-04 01:20:00,
2013-01-03 19:21:00,42.9,29.5,30.36,North,6,5.0,9.0,59,0.00,,,0.00,Wunderground v.1.15,2013-01-04 01:21:00,
2013-01-03 19:25:00,42.8,29.0,30.36,North,4,5.0,9.0,58,0.00,,,0.00,Wunderground v.1.15,2013-01-04 01:25:00,
2013-01-03 19:26:00,42.8,29.0,30.36,NNE,31,6.0,9.0,58,0.00,,,0.00,Wunderground v.1.15,2013-01-04 01:26:00,
2013-01-03 19:27:00,42.8,29.0,30.36,North,10,6.0,9.0,58,0.00,,,0.00,Wunderground v.1.15,2013-01-04 01:27:00,
2013-01-03 19:31:00,42.8,29.0,30.36,NE,40,5.0,5.0,58,0.00,,,0.00,Wunderground v.1.15,2013-01-04 01:31:00,
2013-01-03 19:33:00,42.8,29.0,30.36,NNE,25,4.0,7.0,58,0.00,,,0.00,Wunderground v.1.15,2013-01-04 01:33:00,
2013-01-03 19:36:00,42.6,29.3,30.36,North,0,4.0,7.0,59,0.00,,,0.00,Wunderground v.1.15,2013-01-04 01:36:00,
2013-01-03 19:38:00,42.6,29.3,30.36,NNE,20,4.0,8.0,59,0.00,,,0.00,Wunderground v.1.15,2013-01-04 01:38:00,
2013-01-03 19:40:00,42.6,29.3,30.36,NE,34,4.0,7.0,59,0.00,,,0.00,Wunderground v.1.15,2013-01-04 01:40:00,
2013-01-03 19:41:00,42.6,28.8,30.36,NNE,24,5.0,7.0,58,0.00,,,0.00,Wunderground v.1.15,2013-01-04 01:41:00,
2013-01-03 19:43:00,42.6,29.3,30.36,NE,41,5.0,7.0,59,0.00,,,0.00,Wunderground v.1.15,2013-01-04 01:43:00,
2013-01-03 19:45:00,42.5,29.2,30.36,NNE,18,5.0,7.0,59,0.00,,,0.00,Wunderground v.1.15,2013-01-04 01:45:00,
2013-01-03 19:46:00,42.5,29.2,30.36,NNE,20,5.0,7.0,59,0.00,,,0.00,Wunderground v.1.15,2013-01-04 01:46:00,
2013-01-03 19:50:00,42.5,29.2,30.36,NNE,31,5.0,7.0,59,0.00,,,0.00,Wunderground v.1.15,2013-01-04 01:50:00,
2013-01-03 19:51:00,42.5,29.2,30.36,NNE,21,4.0,5.0,59,0.00,,,0.00,Wunderground v.1.15,2013-01-04 01:51:00,
2013-01-03 19:53:00,42.5,29.2,30.36,NNE,20,4.0,5.0,59,0.00,,,0.00,Wunderground v.1.15,2013-01-04 01:53:00,
2013-01-03 19:55:00,42.5,29.6,30.36,NE,52,4.0,5.0,60,0.00,,,0.00,Wunderground v.1.15,2013-01-04 01:55:00,
2013-01-03 19:56:00,42.5,29.2,30.36,North,0,3.0,5.0,59,0.00,,,0.00,Wunderground v.1.15,2013-01-04 01:56:00,
2013-01-03 19:58:00,42.5,29.2,30.36,NE,47,4.0,5.0,59,0.00,,,0.00,Wunderground v.1.15,2013-01-04 01:58:00,
2013-01-03 20:00:00,42.5,29.2,30.35,NNE,21,4.0,5.0,59,0.00,,,0.00,Wunderground v.1.15,2013-01-04 02:00:00,
2013-01-03 20:01:00,42.3,29.0,30.35,North,0,4.0,5.0,59,0.00,,,0.00,Wunderground v.1.15,2013-01-04 02:01:00,
2013-01-03 20:05:00,42.3,29.0,30.35,NE,52,5.0,8.0,59,0.00,,,0.00,Wunderground v.1.15,2013-01-04 02:05:00,
2013-01-03 20:06:00,42.3,29.0,30.35,NNE,18,5.0,8.0,59,0.00,,,0.00,Wunderground v.1.15,2013-01-04 02:06:00,
2013-01-03 20:10:00,42.3,29.0,30.35,NNE,30,5.0,5.0,59,0.00,,,0.00,Wunderground v.1.15,2013-01-04 02:10:00,
2013-01-03 20:11:00,42.3,29.4,30.35,NE,34,5.0,5.0,60,0.00,,,0.00,Wunderground v.1.15,2013-01-04 02:11:00,
2013-01-03 20:14:00,42.3,29.4,30.35,NE,47,4.0,6.0,60,0.00,,,0.00,Wunderground v.1.15,2013-01-04 02:14:00,
2013-01-03 20:15:00,42.3,29.4,30.35,ENE,65,4.0,6.0,60,0.00,,,0.00,Wunderground v.1.15,2013-01-04 02:15:00,
2013-01-03 20:16:00,42.3,29.4,30.35,North,0,4.0,6.0,60,0.00,,,0.00,Wunderground v.1.15,2013-01-04 02:16:00,
2013-01-03 20:17:00,42.3,29.4,30.35,NE,45,4.0,6.0,60,0.00,,,0.00,Wunderground v.1.15,2013-01-04 02:17:00,
2013-01-03 20:20:00,42.3,29.4,30.35,NE,45,4.0,8.0,60,0.00,,,0.00,Wunderground v.1.15,2013-01-04 02:20:00,
2013-01-03 20:21:00,42.2,29.3,30.35,NE,34,5.0,8.0,60,0.00,,,0.00,Wunderground v.1.15,2013-01-04 02:21:00,
2013-01-03 20:23:00,42.2,29.3,30.35,NE,48,5.0,8.0,60,0.00,,,0.00,Wunderground v.1.15,2013-01-04 02:23:00,
2013-01-03 20:24:00,42.2,29.3,30.35,NE,52,5.0,8.0,60,0.00,,,0.00,Wunderground v.1.15,2013-01-04 02:24:00,
2013-01-03 20:25:00,42.2,29.3,30.35,NE,41,5.0,8.0,60,0.00,,,0.00,Wunderground v.1.15,2013-01-04 02:25:00,
2013-01-03 20:30:00,42.2,29.3,30.34,NNE,17,4.0,8.0,60,0.00,,,0.00,Wunderground v.1.15,2013-01-04 02:30:00,
2013-01-03 20:33:00,42.2,29.3,30.34,NNE,30,5.0,8.0,60,0.00,,,0.00,Wunderground v.1.15,2013-01-04 02:33:00,
2013-01-03 20:34:00,42.2,29.3,30.34,North,1,5.0,8.0,60,0.00,,,0.00,Wunderground v.1.15,2013-01-04 02:34:00,
2013-01-03 20:35:00,42.2,29.3,30.34,NE,47,5.0,8.0,60,0.00,,,0.00,Wunderground v.1.15,2013-01-04 02:35:00,
2013-01-03 20:40:00,42.2,29.3,30.34,ENE,58,5.0,6.0,60,0.00,,,0.00,Wunderground v.1.15,2013-01-04 02:40:00,
2013-01-03 20:41:00,42.2,29.3,30.34,North,11,6.0,6.0,60,0.00,,,0.00,Wunderground v.1.15,2013-01-04 02:41:00,
2013-01-03 20:43:00,42.2,29.3,30.34,NE,48,5.0,6.0,60,0.00,,,0.00,Wunderground v.1.15,2013-01-04 02:43:00,
2013-01-03 20:45:00,42.2,29.3,30.34,NE,45,5.0,6.0,60,0.00,,,0.00,Wunderground v.1.15,2013-01-04 02:45:00,
2013-01-03 20:47:00,42.2,29.3,30.34,NE,48,4.0,6.0,60,0.00,,,0.00,Wunderground v.1.15,2013-01-04 02:47:00,
2013-01-03 20:50:00,42.2,29.3,30.34,NNE,20,4.0,4.0,60,0.00,,,0.00,Wunderground v.1.15,2013-01-04 02:50:00,
2013-01-03 20:52:00,42.2,29.3,30.34,NE,40,4.0,8.0,60,0.00,,,0.00,Wunderground v.1.15,2013-01-04 02:52:00,
2013-01-03 20:53:00,42.2,29.3,30.34,NE,40,4.0,8.0,60,0.00,,,0.00,Wunderground v.1.15,2013-01-04 02:53:00,
2013-01-03 20:54:00,42.2,29.3,30.34,NE,41,4.0,8.0,60,0.00,,,0.00,Wunderground v.1.15,2013-01-04 02:54:00,
2013-01-03 20:57:00,42.3,29.4,30.34,NNE,17,4.0,8.0,60,0.00,,,0.00,Wunderground v.1.15,2013-01-04 02:57:00,
2013-01-03 21:00:00,42.3,29.4,30.34,NNE,23,4.0,4.0,60,0.00,,,0.00,Wunderground v.1.15,2013-01-04 03:00:00,
2013-01-03 21:04:00,42.3,29.4,30.35,NNW,346,4.0,7.0,60,0.00,,,0.00,Wunderground v.1.15,2013-01-04 03:04:00,
2013-01-03 21:07:00,42.3,29.4,30.35,NNE,14,4.0,7.0,60,0.00,,,0.00,Wunderground v.1.15,2013-01-04 03:07:00,
2013-01-03 21:10:00,42.3,29.4,30.35,NNW,347,3.0,7.0,60,0.00,,,0.00,Wunderground v.1.15,2013-01-04 03:10:00,
2013-01-03 21:11:00,42.3,29.4,30.35,NE,35,3.0,4.0,60,0.00,,,0.00,Wunderground v.1.15,2013-01-04 03:11:00,
2013-01-03 21:13:00,42.3,29.4,30.35,NNE,23,3.0,4.0,60,0.00,,,0.00,Wunderground v.1.15,2013-01-04 03:13:00,
2013-01-03 21:14:00,42.3,29.4,30.35,NNE,24,3.0,4.0,60,0.00,,,0.00,Wunderground v.1.15,2013-01-04 03:14:00,
2013-01-03 21:17:00,42.3,29.4,30.36,NNE,24,2.0,4.0,60,0.00,,,0.00,Wunderground v.1.15,2013-01-04 03:17:00,
2013-01-03 21:21:00,42.3,29.8,30.36,North,10,2.0,3.0,61,0.00,,,0.00,Wunderground v.1.15,2013-01-04 03:21:00,
2013-01-03 21:22:00,42.3,29.4,30.36,North,10,2.0,3.0,60,0.00,,,0.00,Wunderground v.1.15,2013-01-04 03:22:00,
2013-01-03 21:23:00,42.3,29.8,30.36,North,10,2.0,3.0,61,0.00,,,0.00,Wunderground v.1.15,2013-01-04 03:23:00,
2013-01-03 21:26:00,42.3,29.8,30.36,North,10,2.0,3.0,61,0.00,,,0.00,Wunderground v.1.15,2013-01-04 03:26:00,
2013-01-03 21:27:00,42.3,29.8,30.36,North,10,2.0,3.0,61,0.00,,,0.00,Wunderground v.1.15,2013-01-04 03:27:00,
2013-01-03 21:28:00,42.3,29.8,30.36,North,10,2.0,3.0,61,0.00,,,0.00,Wunderground v.1.15,2013-01-04 03:28:00,
2013-01-03 21:33:00,42.3,29.8,30.37,North,10,2.0,2.0,61,0.00,,,0.00,Wunderground v.1.15,2013-01-04 03:33:00,
2013-01-03 21:34:00,42.3,29.8,30.37,North,10,2.0,2.0,61,0.00,,,0.00,Wunderground v.1.15,2013-01-04 03:34:00,
2013-01-03 21:35:00,42.5,30.0,30.37,North,10,2.0,2.0,61,0.00,,,0.00,Wunderground v.1.15,2013-01-04 03:35:00,
2013-01-03 21:40:00,42.5,30.0,30.37,North,11,2.0,3.0,61,0.00,,,0.00,Wunderground v.1.15,2013-01-04 03:40:00,
2013-01-03 21:41:00,42.5,30.0,30.37,North,11,2.0,3.0,61,0.00,,,0.00,Wunderground v.1.15,2013-01-04 03:41:00,
2013-01-03 21:42:00,42.5,30.0,30.37,NE,35,2.0,3.0,61,0.00,,,0.00,Wunderground v.1.15,2013-01-04 03:42:00,
2013-01-03 21:45:00,42.5,30.0,30.37,NNE,30,2.0,3.0,61,0.00,,,0.00,Wunderground v.1.15,2013-01-04 03:45:00,
2013-01-03 21:50:00,42.3,30.2,30.35,NE,34,2.0,2.0,62,0.00,,,0.00,Wunderground v.1.15,2013-01-04 03:50:00,
2013-01-03 21:51:00,42.3,30.2,30.35,NNE,32,2.0,2.0,62,0.00,,,0.00,Wunderground v.1.15,2013-01-04 03:51:00,
2013-01-03 21:52:00,42.3,30.2,30.35,NE,52,2.0,3.0,62,0.00,,,0.00,Wunderground v.1.15,2013-01-04 03:52:00,
2013-01-03 21:53:00,42.3,30.2,30.35,NNE,31,2.0,3.0,62,0.00,,,0.00,Wunderground v.1.15,2013-01-04 03:53:00,
2013-01-03 21:57:00,42.3,30.2,30.35,NE,45,3.0,5.0,62,0.00,,,0.00,Wunderground v.1.15,2013-01-04 03:57:00,
2013-01-03 21:58:00,42.3,30.2,30.35,NE,45,3.0,5.0,62,0.00,,,0.00,Wunderground v.1.15,2013-01-04 03:58:00,
2013-01-03 22:00:00,42.2,30.1,30.34,NE,44,3.0,4.0,62,0.00,,,0.00,Wunderground v.1.15,2013-01-04 04:00:00,
2013-01-03 22:03:00,42.2,30.1,30.34,NE,55,4.0,7.0,62,0.00,,,0.00,Wunderground v.1.15,2013-01-04 04:03:00,
2013-01-03 22:04:00,42.2,30.1,30.34,NNE,25,4.0,7.0,62,0.00,,,0.00,Wunderground v.1.15,2013-01-04 04:04:00,
2013-01-03 22:05:00,42.2,30.1,30.34,NNE,25,3.0,7.0,62,0.00,,,0.00,Wunderground v.1.15,2013-01-04 04:05:00,
2013-01-03 22:07:00,42.2,30.1,30.34,NNE,27,3.0,7.0,62,0.00,,,0.00,Wunderground v.1.15,2013-01-04 04:07:00,
2013-01-03 22:10:00,42.2,30.1,30.34,NNE,30,4.0,5.0,62,0.00,,,0.00,Wunderground v.1.15,2013-01-04 04:10:00,
2013-01-03 22:11:00,42.2,30.1,30.34,NNE,25,4.0,5.0,62,0.00,,,0.00,Wunderground v.1.15,2013-01-04 04:11:00,
2013-01-03 22:15:00,42.2,30.1,30.34,NE,44,4.0,5.0,62,0.00,,,0.00,Wunderground v.1.15,2013-01-04 04:15:00,
2013-01-03 22:16:00,42.2,30.1,30.34,NE,44,4.0,5.0,62,0.00,,,0.00,Wunderground v.1.15,2013-01-04 04:16:00,
2013-01-03 22:18:00,42.2,30.1,30.34,NNE,24,3.0,5.0,62,0.00,,,0.00,Wunderground v.1.15,2013-01-04 04:18:00,
2013-01-03 22:21:00,42.2,30.5,30.34,NE,41,3.0,3.0,63,0.00,,,0.00,Wunderground v.1.15,2013-01-04 04:21:00,
2013-01-03 22:23:00,42.2,30.1,30.34,NE,41,3.0,3.0,62,0.00,,,0.00,Wunderground v.1.15,2013-01-04 04:23:00,
2013-01-03 22:25:00,42.2,30.1,30.34,NNE,16,3.0,3.0,62,0.00,,,0.00,Wunderground v.1.15,2013-01-04 04:25:00,
2013-01-03 22:27:00,42.2,30.1,30.34,North,359,3.0,3.0,62,0.00,,,0.00,Wunderground v.1.15,2013-01-04 04:27:00,
2013-01-03 22:31:00,42.2,30.5,30.36,North,359,2.0,2.0,63,0.00,,,0.00,Wunderground v.1.15,2013-01-04 04:31:00,
2013-01-03 22:34:00,42.3,30.6,30.36,NNW,336,2.0,6.0,63,0.00,,,0.00,Wunderground v.1.15,2013-01-04 04:34:00,
2013-01-03 22:36:00,42.3,30.2,30.36,North,353,3.0,6.0,62,0.00,,,0.00,Wunderground v.1.15,2013-01-04 04:36:00,
2013-01-03 22:38:00,42.3,30.2,30.36,NNE,24,3.0,6.0,62,0.00,,,0.00,Wunderground v.1.15,2013-01-04 04:38:00,
2013-01-03 22:40:00,42.3,30.2,30.36,North,359,3.0,5.0,62,0.00,,,0.00,Wunderground v.1.15,2013-01-04 04:40:00,
2013-01-03 22:41:00,42.3,30.2,30.36,North,0,3.0,5.0,62,0.00,,,0.00,Wunderground v.1.15,2013-01-04 04:41:00,
2013-01-03 22:43:00,42.3,30.2,30.36,North,0,3.0,5.0,62,0.00,,,0.00,Wunderground v.1.15,2013-01-04 04:43:00,
2013-01-03 22:45:00,42.3,30.2,30.36,NE,40,3.0,5.0,62,0.00,,,0.00,Wunderground v.1.15,2013-01-04 04:45:00,
2013-01-03 22:46:00,42.3,30.2,30.35,NNE,21,3.0,5.0,62,0.00,,,0.00,Wunderground v.1.15,2013-01-04 04:46:00,
2013-01-03 22:47:00,42.3,30.2,30.35,NNE,21,3.0,5.0,62,0.00,,,0.00,Wunderground v.1.15,2013-01-04 04:47:00,
2013-01-03 22:48:00,42.3,30.2,30.35,NNE,17,3.0,5.0,62,0.00,,,0.00,Wunderground v.1.15,2013-01-04 04:48:00,
2013-01-03 22:52:00,42.3,30.2,30.35,NNE,23,3.0,3.0,62,0.00,,,0.00,Wunderground v.1.15,2013-01-04 04:52:00,
2013-01-03 22:54:00,42.3,30.2,30.35,NNE,24,3.0,6.0,62,0.00,,,0.00,Wunderground v.1.15,2013-01-04 04:54:00,
2013-01-03 22:55:00,42.3,30.2,30.35,NNE,16,4.0,6.0,62,0.00,,,0.00,Wunderground v.1.15,2013-01-04 04:55:00,
2013-01-03 23:00:00,42.3,30.2,30.35,NNE,20,3.0,6.0,62,0.00,,,0.00,Wunderground v.1.15,2013-01-04 05:00:00,
2013-01-03 23:03:00,42.2,30.5,30.35,NNE,18,4.0,6.0,63,0.00,,,0.00,Wunderground v.1.15,2013-01-04 05:03:00,
2013-01-03 23:05:00,42.2,30.5,30.35,North,0,4.0,6.0,63,0.00,,,0.00,Wunderground v.1.15,2013-01-04 05:05:00,
2013-01-03 23:06:00,42.2,30.5,30.35,North,359,4.0,6.0,63,0.00,,,0.00,Wunderground v.1.15,2013-01-04 05:06:00,
2013-01-03 23:10:00,42.2,30.5,30.35,North,0,3.0,6.0,63,0.00,,,0.00,Wunderground v.1.15,2013-01-04 05:10:00,
2013-01-03 23:11:00,42.2,30.5,30.35,North,0,3.0,3.0,63,0.00,,,0.00,Wunderground v.1.15,2013-01-04 05:11:00,
2013-01-03 23:13:00,42.2,30.5,30.35,NNE,32,3.0,6.0,63,0.00,,,0.00,Wunderground v.1.15,2013-01-04 05:13:00,
2013-01-03 23:16:00,42.2,30.5,30.35,NNE,24,3.0,6.0,63,0.00,,,0.00,Wunderground v.1.15,2013-01-04 05:16:00,
2013-01-03 23:18:00,42.2,30.5,30.35,NNE,31,4.0,6.0,63,0.00,,,0.00,Wunderground v.1.15,2013-01-04 05:18:00,
2013-01-03 23:20:00,42.2,30.5,30.35,NNE,30,4.0,4.0,63,0.00,,,0.00,Wunderground v.1.15,2013-01-04 05:20:00,
2013-01-03 23:21:00,42.2,30.5,30.35,North,0,4.0,5.0,63,0.00,,,0.00,Wunderground v.1.15,2013-01-04 05:21:00,
2013-01-03 23:25:00,42.2,30.5,30.35,NNE,24,4.0,8.0,63,0.00,,,0.00,Wunderground v.1.15,2013-01-04 05:25:00,
2013-01-03 23:26:00,42.2,30.5,30.35,WNW,295,4.0,8.0,63,0.00,,,0.00,Wunderground v.1.15,2013-01-04 05:26:00,
2013-01-03 23:28:00,42.2,30.5,30.35,North,0,4.0,8.0,63,0.00,,,0.00,Wunderground v.1.15,2013-01-04 05:28:00,
2013-01-03 23:32:00,42.2,30.5,30.35,North,0,4.0,6.0,63,0.00,,,0.00,Wunderground v.1.15,2013-01-04 05:32:00,
2013-01-03 23:34:00,42.2,30.5,30.35,North,0,4.0,6.0,63,0.00,,,0.00,Wunderground v.1.15,2013-01-04 05:34:00,
2013-01-03 23:36:00,42.2,30.5,30.35,NNW,344,4.0,6.0,63,0.00,,,0.00,Wunderground v.1.15,2013-01-04 05:36:00,
2013-01-03 23:37:00,42.2,30.5,30.35,NNE,13,4.0,6.0,63,0.00,,,0.00,Wunderground v.1.15,2013-01-04 05:37:00,
2013-01-03 23:38:00,42.2,30.5,30.35,North,0,4.0,6.0,63,0.00,,,0.00,Wunderground v.1.15,2013-01-04 05:38:00,
2013-01-03 23:40:00,42.2,30.5,30.35,North,8,4.0,6.0,63,0.00,,,0.00,Wunderground v.1.15,2013-01-04 05:40:00,
2013-01-03 23:41:00,42.2,30.5,30.35,North,7,4.0,5.0,63,0.00,,,0.00,Wunderground v.1.15,2013-01-04 05:41:00,
2013-01-03 23:43:00,42.2,30.5,30.35,North,0,4.0,6.0,63,0.00,,,0.00,Wunderground v.1.15,2013-01-04 05:43:00,
2013-01-03 23:48:00,42.2,30.5,30.35,NE,40,4.0,6.0,63,0.00,,,0.00,Wunderground v.1.15,2013-01-04 05:48:00,
2013-01-03 23:49:00,42.2,30.5,30.35,NNE,30,4.0,6.0,63,0.00,,,0.00,Wunderground v.1.15,2013-01-04 05:49:00,
2013-01-03 23:50:00,42.2,30.5,30.35,North,10,4.0,6.0,63,0.00,,,0.00,Wunderground v.1.15,2013-01-04 05:50:00,
2013-01-03 23:54:00,42.2,30.5,30.35,NNE,20,4.0,6.0,63,0.00,,,0.00,Wunderground v.1.15,2013-01-04 05:54:00,
2013-01-03 23:57:00,42.1,30.8,30.35,NE,41,5.0,6.0,64,0.00,,,0.00,Wunderground v.1.15,2013-01-04 05:57:00,
2013-01-03 23:59:00,42.1,30.8,30.35,NNE,27,4.0,6.0,64,0.00,,,0.00,Wunderground v.1.15,2013-01-04 05:59:00,